ECMWFFLT2_sfc_temp_060.txt.gz
Temp
76 76 75 75 74 74 74 74 73 73 73 72 71 71 72 71 69 70 72 74 74 75 74 74 75 75 75 75 73 74 74 74 75 75 74 74 74 74 74 73 73 73 73 73 73 73 72 73 73 73 74 74 74 73 75 77 80 80 79 77 75 75
75 75 75 74 75 74 74 74 73 72 73 72 71 71 71 70 72 70 72 72 71 73 74 74 74 76 74 74 74 74 74 75 75 74 74 74 74 74 74 73 73 73 73 73 72 72 73 72 72 73 74 73 72 73 76 79 80 81 78 77 75 74
75 75 75 75 75 74 74 73 73 73 73 73 73 71 69 71 69 70 71 71 71 71 73 73 74 75 75 75 74 74 74 74 74 74 74 74 74 74 73 73 73 72 73 72 72 72 75 75 72 73 73 72 72 74 77 78 79 80 78 75 74 75
75 75 75 75 75 74 74 74 74 73 73 73 73 70 69 69 69 69 69 69 70 71 72 72 77 77 77 74 73 73 74 74 74 74 74 74 73 73 73 73 72 72 72 74 73 75 78 78 76 73 73 73 74 77 79 79 80 79 77 77 75 74
76 75 75 74 74 74 74 74 74 74 74 74 70 68 68 67 69 69 70 70 71 72 72 73 74 74 74 73 73 73 73 73 73 73 74 73 72 75 72 74 73 72 72 74 76 77 78 78 77 76 76 76 77 78 79 79 78 79 77 75 73 74
76 75 74 74 74 74 74 73 73 74 74 73 68 67 68 68 69 70 70 70 70 70 70 72 73 73 74 73 73 73 74 74 74 74 73 73 74 74 72 74 75 74 74 75 77 76 77 76 78 76 77 76 77 78 78 79 76 76 74 73 73 74
75 75 73 75 74 74 73 74 74 73 72 68 69 67 67 67 68 69 69 69 69 69 70 72 72 73 73 74 73 72 72 72 72 72 73 73 72 71 71 68 66 68 72 74 76 80 80 80 78 80 78 80 80 79 77 77 76 76 74 73 73 73
75 75 72 72 73 73 73 73 72 69 71 69 67 66 68 68 68 67 68 69 70 71 71 71 72 73 73 73 73 73 72 71 70 71 72 73 68 67 67 68 68 68 68 71 73 74 75 73 73 78 79 79 79 77 76 77 72 74 75 73 73 73
75 73 70 71 73 73 73 71 69 68 68 70 70 67 67 67 67 67 68 71 72 71 72 73 72 73 73 72 73 73 71 71 70 70 71 70 68 67 66 66 67 67 68 68 69 71 74 71 71 73 77 79 79 80 78 78 74 74 74 73 73 73
72 69 68 70 70 71 71 70 70 69 69 69 68 67 67 67 67 68 69 71 73 72 72 73 73 72 72 70 72 72 71 70 69 70 70 69 68 68 67 67 68 68 68 69 69 70 72 71 71 71 73 76 77 80 78 78 77 75 76 75 73 72
70 69 69 69 69 69 70 69 69 69 67 66 68 68 68 68 69 70 70 71 73 72 71 71 71 71 70 70 71 71 70 70 69 68 69 69 69 68 67 66 66 66 68 69 70 71 71 70 70 71 72 73 68 72 78 78 80 78 77 76 74 72
69 70 71 70 70 70 69 69 69 68 66 67 68 68 68 68 69 70 70 70 70 69 70 70 71 72 71 71 70 70 69 70 69 68 68 69 68 67 68 68 67 69 69 69 70 71 71 69 68 67 70 71 69 69 69 72 79 78 78 76 75 73
72 71 71 71 71 71 70 70 68 67 67 68 68 68 68 69 70 71 71 71 70 70 69 69 70 71 72 72 71 70 68 68 69 68 69 70 69 68 68 68 68 68 68 69 70 69 70 68 67 67 68 68 67 68 68 67 76 76 77 77 75 74
73 72 72 71 72 72 72 71 70 69 69 68 67 67 68 69 70 72 71 71 70 70 69 70 70 70 71 72 70 68 69 69 69 69 70 69 68 69 68 68 69 68 69 68 68 68 67 67 67 68 67 68 68 67 66 70 68 72 71 74 74 74
70 70 71 71 72 73 74 73 71 68 67 67 67 67 68 68 71 72 72 70 69 70 71 72 72 71 71 71 67 66 67 70 70 69 70 70 70 69 69 69 67 68 68 67 67 67 66 65 66 65 66 68 68 69 71 68 66 68 70 72 73 73
69 69 70 70 72 73 74 73 73 70 70 69 68 68 66 72 73 72 69 68 69 70 71 73 73 72 71 70 67 68 68 71 70 70 70 70 70 70 69 68 67 68 67 69 68 67 66 66 65 65 66 67 68 67 70 66 67 67 68 68 67 68
69 69 69 71 72 72 73 74 74 74 74 73 73 73 71 73 73 71 70 69 71 71 72 72 73 73 71 70 69 70 71 71 72 71 70 70 70 70 70 69 67 67 68 67 69 68 66 65 65 65 66 66 67 69 67 68 67 68 68 67 68 69
68 69 69 70 71 71 72 72 72 72 72 74 74 73 73 75 74 73 73 72 73 72 72 73 73 73 71 72 70 71 71 71 72 71 70 70 69 70 70 70 68 68 69 69 68 66 65 65 66 64 64 66 68 69 67 67 68 69 66 67 66 68
69 69 69 70 71 71 71 71 71 71 72 72 74 74 75 72 72 72 71 73 74 74 74 74 74 73 71 71 72 71 71 70 70 71 70 69 70 69 68 69 69 68 69 70 68 68 66 65 66 65 66 66 67 69 69 68 68 68 66 65 67 68
68 69 69 70 71 71 71 71 70 71 72 72 74 75 75 75 74 72 74 74 74 73 75 74 74 73 72 71 71 70 71 72 71 70 69 68 69 69 68 68 69 70 68 69 70 69 67 65 65 65 65 66 68 69 70 69 68 68 66 66 65 66
69 70 70 70 71 71 71 71 72 72 71 73 74 74 75 75 75 75 76 76 75 72 73 74 74 72 72 72 70 69 70 72 71 71 69 69 70 70 70 70 69 69 69 68 66 68 68 67 64 62 64 65 66 69 69 69 67 67 67 66 65 65
68 70 71 71 71 72 72 72 72 72 73 74 74 74 73 73 74 75 75 75 75 75 74 74 73 74 74 72 70 69 70 70 71 71 70 70 71 71 71 70 70 68 68 68 66 68 68 67 62 61 61 62 63 65 67 66 67 68 68 68 65 64
66 67 69 72 72 71 73 74 74 73 74 74 76 75 76 75 75 76 74 75 75 75 75 75 75 75 74 74 73 72 72 71 72 72 70 70 70 69 70 70 70 69 66 67 66 69 69 68 63 64 64 61 59 58 62 64 66 67 67 67 66 64
66 68 70 71 72 73 74 74 75 74 73 73 72 74 74 74 75 75 75 75 75 75 76 76 78 78 76 74 73 73 73 73 72 72 71 70 70 71 70 69 69 68 69 65 66 66 68 68 67 64 58 60 59 59 55 58 61 64 66 66 66 64
65 66 68 72 73 73 73 74 73 73 73 72 73 72 72 71 73 73 74 73 74 76 76 76 75 76 76 74 73 73 72 72 72 72 72 72 70 70 73 74 72 70 68 66 65 64 65 66 66 68 64 61 57 57 57 59 62 61 64 64 65 66
65 65 65 70 73 73 72 71 71 69 68 68 67 68 68 68 70 71 72 73 75 76 76 76 75 76 76 75 73 73 74 73 72 72 72 71 71 70 70 71 72 71 70 69 67 65 63 67 66 67 68 65 63 59 58 60 61 55 63 64 65 67
65 65 69 71 72 73 72 72 71 71 70 69 68 70 71 72 71 72 73 72 73 74 76 74 73 74 74 74 73 74 74 73 73 71 72 71 70 70 71 71 71 71 70 69 68 64 63 64 66 66 66 66 66 64 64 62 58 59 56 59 64 64
67 69 71 71 71 71 72 71 71 71 71 71 71 70 71 71 72 72 71 72 72 73 74 74 73 75 74 74 73 73 73 71 73 74 73 72 70 70 71 72 70 70 70 69 68 66 65 67 64 62 64 63 63 66 66 65 65 61 60 56 58 66
69 70 71 71 70 69 70 71 71 71 70 71 72 71 72 72 71 72 71 71 71 73 72 73 74 73 73 74 72 71 72 72 72 73 74 73 72 72 70 69 69 68 68 68 69 68 66 65 66 64 64 64 65 65 64 65 65 64 61 58 57 59
69 70 70 70 70 70 70 70 69 69 70 70 70 71 71 70 70 71 70 69 70 70 71 71 71 72 72 74 72 72 72 72 71 72 72 72 70 70 69 69 68 68 68 68 68 68 67 67 68 68 69 68 66 65 64 63 63 62 62 62 59 59
68 69 69 69 70 69 70 70 70 69 71 70 70 70 69 69 69 69 69 69 69 69 70 70 70 70 71 72 70 71 71 72 71 71 72 72 70 71 70 69 69 69 69 68 66 67 66 67 67 66 67 66 66 66 65 62 61 62 61 59 59 59
67 67 68 69 69 69 69 70 70 70 71 71 71 70 69 68 69 69 69 68 69 68 68 70 69 69 69 70 70 70 70 70 70 70 70 70 70 71 70 70 68 67 67 67 67 66 65 65 65 66 65 66 65 67 67 66 65 64 62 61 62 62
66 67 67 69 68 68 69 69 69 70 71 71 71 71 70 69 70 69 69 69 68 67 68 68 67 68 69 69 69 69 69 68 69 69 69 70 70 70 69 68 68 68 66 66 66 65 64 64 64 63 64 65 66 68 68 68 68 65 64 63 64 64
66 67 68 68 69 68 69 70 70 70 71 71 71 70 70 70 70 70 70 69 68 68 67 67 68 68 69 70 69 69 69 69 69 69 69 68 68 69 69 70 68 67 66 66 66 65 65 65 64 65 66 64 65 66 65 68 67 67 66 65 63 64
66 68 68 69 69 69 69 70 71 72 71 71 71 70 71 71 71 70 70 70 70 69 68 69 68 68 69 68 69 69 69 68 69 69 69 68 70 68 67 69 68 66 66 67 67 66 65 65 66 66 64 64 65 64 64 68 67 67 70 67 67 66
68 68 69 69 70 70 70 71 71 71 71 71 71 71 70 71 71 70 70 70 69 69 69 68 69 69 69 69 68 69 69 69 69 70 69 69 68 68 68 67 67 66 66 71 66 66 65 65 64 65 65 65 65 65 66 66 69 67 68 67 68 67
69 70 70 70 70 71 71 71 71 71 71 71 71 71 70 70 70 71 71 70 69 70 69 69 69 69 69 69 69 68 68 69 69 69 68 69 69 68 68 67 67 66 66 67 66 66 65 65 65 65 65 65 64 64 65 66 67 67 68 67 68 67

ECMWFFLT2_sfc_temp_063.txt.gz
Temp
72 72 71 71 71 72 73 73 73 73 72 72 71 72 71 72 72 71 72 72 70 71 72 72 73 73 75 73 73 74 75 75 75 75 74 74 74 74 74 73 73 73 73 73 73 73 72 73 73 73 73 74 74 70 69 71 74 73 72 72 72 73
71 71 71 71 71 71 72 71 70 70 70 71 71 71 70 68 71 68 72 71 69 71 70 71 72 74 72 73 74 74 74 75 74 74 74 74 74 73 73 73 73 73 73 73 72 68 68 72 73 73 74 74 70 68 68 71 73 73 72 71 71 73
71 71 71 71 71 70 70 70 70 71 71 71 70 70 69 69 68 68 70 70 70 70 71 71 72 73 73 74 73 74 75 74 74 74 74 73 73 73 73 73 73 73 72 72 69 67 67 68 67 72 73 71 67 67 69 72 72 72 71 71 71 75
71 71 70 70 70 69 69 69 69 69 70 68 68 67 68 69 68 68 68 68 69 70 70 71 76 76 75 72 72 73 74 74 74 74 74 73 73 73 73 73 72 72 70 70 67 67 69 69 68 68 67 66 67 68 71 72 72 72 71 73 73 74
72 72 71 70 69 68 69 69 69 70 68 67 66 66 66 67 68 68 68 68 69 70 69 70 70 71 70 70 69 70 70 70 69 69 72 68 68 71 69 69 68 69 67 67 68 69 69 70 71 69 67 67 69 70 71 73 73 72 71 71 72 74
72 72 71 70 69 71 70 68 69 68 67 66 66 65 66 66 67 68 67 68 69 68 68 70 70 70 70 69 69 68 69 69 69 69 70 67 67 66 66 66 66 66 67 67 68 69 70 70 71 69 69 68 70 70 72 72 72 70 70 70 72 74
71 70 71 71 70 70 69 69 67 66 66 65 65 64 65 65 65 66 67 68 68 68 68 69 69 69 69 69 69 68 68 68 68 69 69 67 65 66 66 65 65 65 65 67 69 70 71 71 69 72 70 73 71 72 71 72 71 70 69 69 72 74
71 70 69 70 70 69 68 68 68 68 67 67 65 65 65 65 66 66 67 67 69 68 69 69 69 69 69 69 69 69 68 67 67 67 68 66 64 65 65 66 66 66 67 67 69 70 70 70 69 70 71 71 71 72 69 72 70 70 69 69 71 73
69 69 69 70 69 67 67 67 66 66 65 68 65 65 66 66 65 66 67 68 70 68 69 69 69 69 69 69 68 68 67 67 67 67 66 65 65 64 64 65 65 65 65 65 66 67 69 69 68 70 70 70 69 71 71 70 70 69 69 69 69 72
68 68 68 69 68 66 66 65 66 66 65 68 65 65 66 65 66 67 67 69 70 69 68 68 67 68 68 68 68 68 67 66 66 66 66 64 65 64 64 65 65 65 66 66 67 68 68 67 68 68 70 69 68 69 68 69 69 70 70 68 69 71
68 69 68 68 67 67 67 66 66 66 66 65 65 66 66 67 67 67 68 68 69 69 68 68 67 67 67 67 68 67 66 66 65 65 65 64 65 65 64 63 64 64 64 64 66 66 67 66 66 67 69 69 67 68 67 67 68 67 68 68 68 69
68 68 68 68 68 68 67 67 66 65 65 66 67 66 67 67 68 67 68 67 67 67 68 67 68 68 67 67 67 66 66 66 65 65 65 65 65 64 64 64 64 65 65 65 65 66 66 65 65 66 67 67 67 67 66 66 66 67 67 66 65 66
68 68 68 68 68 67 67 66 65 65 65 67 67 67 66 67 67 68 68 67 67 67 67 67 66 67 68 66 66 66 65 65 65 65 65 66 65 64 64 64 63 65 64 64 66 65 67 65 65 65 66 67 66 66 67 66 66 66 67 67 66 66
68 68 68 68 68 67 67 66 66 66 67 66 65 66 67 67 68 68 68 68 67 67 66 66 66 66 66 66 66 65 65 65 65 65 66 66 64 64 64 63 64 63 66 63 64 63 63 64 64 64 65 66 66 66 65 66 66 66 66 67 66 66
68 68 68 68 68 67 67 67 66 66 66 65 65 66 66 66 66 68 67 67 67 67 66 67 66 67 66 65 65 64 65 65 65 64 65 65 65 65 64 64 62 62 63 62 64 64 64 63 63 64 64 65 66 66 65 66 66 66 66 66 66 66
68 67 67 68 68 68 67 66 66 67 65 66 66 66 66 65 66 67 67 66 66 67 67 67 67 67 66 64 64 64 64 65 65 65 64 65 65 64 63 63 62 62 62 63 64 63 63 63 63 64 64 65 66 65 65 65 65 66 66 65 66 66
67 67 68 68 69 68 67 66 66 65 65 66 65 65 65 65 65 67 66 65 65 66 67 68 68 67 66 65 64 65 64 66 66 65 65 65 64 65 63 64 62 63 63 62 63 63 63 62 62 62 64 65 66 65 65 65 65 65 66 65 65 65
67 67 67 68 68 68 68 66 65 65 66 65 65 65 65 65 66 67 66 66 67 67 67 68 68 68 66 67 66 66 66 67 67 66 65 64 64 64 64 64 62 62 63 63 62 63 61 61 62 62 63 65 65 65 65 65 65 66 64 64 65 65
67 67 67 68 68 68 67 66 65 65 65 65 65 65 66 66 67 67 66 67 68 68 69 68 68 67 66 66 65 66 66 65 66 65 66 64 63 64 63 63 62 63 64 63 63 63 62 61 63 62 64 64 66 65 65 64 64 63 63 64 66 66
67 67 67 67 67 68 67 65 64 65 65 65 65 65 66 67 69 67 69 69 69 68 69 68 68 67 67 66 66 66 66 66 65 65 64 64 63 63 63 63 63 63 63 64 65 64 63 63 62 62 63 63 64 64 65 64 63 63 63 63 64 64
66 67 66 66 67 67 66 66 65 65 65 65 65 66 67 68 69 69 70 70 69 68 69 69 68 67 67 68 65 65 66 66 66 65 64 64 64 65 64 64 63 63 64 62 62 63 63 63 61 59 61 63 62 63 65 65 64 63 63 63 63 63
65 66 67 67 68 67 68 68 67 67 68 68 68 67 66 67 68 69 69 69 69 69 69 68 68 67 67 66 65 65 64 65 65 64 64 65 66 66 65 65 64 63 64 63 61 63 64 62 59 57 58 59 60 63 63 63 63 63 63 63 63 62
65 65 67 68 68 68 68 69 69 68 69 68 70 70 69 69 70 69 68 69 68 68 69 68 68 68 67 67 66 65 65 65 65 65 65 64 65 65 64 64 64 63 62 63 62 64 64 64 58 58 58 58 56 57 59 61 63 63 63 62 61 62
64 64 66 68 69 69 69 68 68 68 68 70 69 69 69 68 69 69 68 69 69 68 68 67 69 70 68 67 65 65 64 65 64 65 64 64 64 64 63 64 64 63 62 60 61 61 64 64 61 59 56 54 55 55 54 56 58 60 62 62 62 62
64 64 65 68 69 69 69 68 69 68 69 68 68 67 65 64 66 67 67 65 66 67 68 69 68 68 68 67 66 66 65 65 65 64 65 64 63 64 65 65 65 64 63 60 60 59 61 63 62 62 57 56 54 54 54 57 59 59 61 60 61 62
63 64 65 67 68 68 68 68 68 67 65 64 63 62 63 64 64 64 66 66 67 67 67 67 68 69 69 68 66 66 66 67 65 66 65 64 64 64 64 65 65 64 63 62 61 59 58 61 61 63 62 59 58 55 56 58 58 54 60 61 61 61
63 63 65 66 68 68 68 68 67 67 66 65 64 63 64 64 64 64 65 65 67 67 68 68 67 67 66 66 65 65 65 64 65 65 66 64 64 64 66 65 65 64 63 64 62 58 59 59 61 61 62 61 62 61 61 57 55 57 54 58 60 59
63 64 65 66 67 67 68 67 66 66 66 65 64 63 64 64 65 66 66 66 66 66 68 68 67 66 64 64 64 64 63 64 65 67 66 65 64 64 66 66 64 63 63 63 62 61 59 60 58 59 60 60 61 62 61 62 62 58 57 53 54 60
63 64 65 66 67 67 68 67 67 66 64 65 65 65 65 65 65 66 64 63 64 65 65 65 67 66 65 66 66 65 63 65 65 65 67 66 65 65 63 63 63 63 62 62 62 61 60 60 60 59 60 59 60 60 61 61 61 62 57 54 54 56
63 65 66 65 66 66 67 67 66 65 65 65 65 64 65 64 63 63 63 63 63 63 62 62 63 63 63 64 63 65 65 65 64 65 65 65 64 64 63 62 61 61 62 62 60 60 60 60 60 60 60 60 60 59 60 60 59 59 59 58 54 55
64 65 66 65 65 65 65 65 66 66 66 65 65 64 64 63 63 63 63 63 62 62 62 62 62 64 63 63 63 64 63 64 64 65 65 64 62 63 62 62 63 62 62 61 60 60 61 60 60 59 60 60 60 61 58 57 58 59 57 55 55 55
64 64 64 64 65 65 65 65 67 67 66 66 66 65 64 62 63 63 63 62 61 61 62 63 62 62 63 64 64 62 63 63 63 63 62 63 64 64 64 63 61 62 61 61 61 61 60 60 59 60 60 59 59 60 61 61 61 60 58 58 58 56
63 63 63 63 64 64 64 65 66 66 66 65 66 65 64 63 63 63 62 62 62 61 60 61 61 63 60 61 63 63 64 63 63 62 62 63 62 62 62 61 61 60 59 59 59 59 58 57 59 58 58 59 60 61 61 61 62 62 61 60 59 57
62 62 62 62 63 63 63 64 64 65 65 66 65 65 64 64 63 63 64 63 63 61 61 62 61 60 61 63 62 63 62 62 61 62 63 62 62 63 63 62 62 60 59 58 60 59 59 58 59 59 60 60 59 59 59 60 61 62 61 60 56 57
61 61 61 61 61 62 63 63 63 64 66 66 65 65 64 64 63 64 64 64 63 61 61 61 61 62 63 62 62 62 63 63 63 62 63 63 64 63 62 63 62 60 61 60 60 59 58 59 61 60 58 58 60 59 59 61 60 62 63 61 61 59
62 62 62 61 61 62 62 62 62 63 65 65 65 65 64 64 64 65 64 64 62 62 61 61 62 62 62 62 62 62 63 62 61 62 62 62 61 60 59 59 58 59 59 63 59 59 58 59 58 57 57 57 60 59 60 60 61 60 60 61 62 61
62 62 62 61 62 62 62 62 62 63 64 63 63 63 63 63 64 64 63 63 63 62 62 62 63 62 62 62 61 60 61 61 61 62 62 62 62 61 61 61 61 59 59 58 59 59 58 59 57 58 57 57 58 58 59 59 62 61 60 60 62 61

ECMWFFLT2_sfc_temp_069.txt.gz
Temp
72 72 72 71 70 71 73 74 73 74 73 73 73 73 73 74 74 74 74 74 72 70 70 71 71 71 74 72 73 74 75 75 75 74 74 74 74 74 73 73 72 72 72 72 71 71 70 71 72 72 73 72 73 69 67 67 67 67 67 68 69 68
72 72 72 71 70 70 72 71 69 70 70 71 73 73 71 70 72 69 73 71 69 70 69 69 70 73 71 73 73 74 74 74 74 74 74 74 73 72 72 72 72 72 72 71 71 64 63 67 70 72 73 72 67 67 67 67 67 67 67 67 68 70
71 71 71 71 70 70 68 68 67 68 70 71 71 70 68 69 67 67 67 68 69 68 69 69 70 71 71 73 72 74 74 74 74 74 73 73 72 72 72 72 72 71 69 70 64 62 62 61 62 71 70 66 64 66 67 67 66 67 67 67 67 73
71 71 70 69 68 67 67 66 66 67 67 66 66 67 67 67 67 67 67 66 67 69 69 69 74 75 74 70 71 73 74 74 74 73 71 69 70 71 70 70 70 69 66 65 63 63 63 62 61 62 62 62 63 66 67 67 66 66 66 70 68 74
71 70 70 69 68 67 66 67 66 66 65 65 65 65 66 66 66 66 67 67 67 68 67 68 69 69 68 69 68 68 69 68 68 68 69 65 65 66 65 64 63 64 62 63 64 64 64 64 63 64 63 64 66 66 66 66 66 66 66 68 68 73
71 70 69 68 67 68 68 66 66 66 65 64 65 65 66 66 66 67 67 68 67 66 66 67 68 68 67 67 67 67 67 67 67 66 67 64 64 64 63 63 63 64 64 64 64 64 64 63 64 63 63 63 65 66 66 65 66 66 67 67 69 74
69 68 68 68 67 67 66 66 66 65 65 64 65 66 66 66 66 67 68 68 66 65 65 65 66 67 67 67 67 66 66 66 66 65 66 64 64 64 64 63 63 62 63 65 65 65 64 64 63 65 65 66 66 66 65 65 66 66 66 67 70 73
68 68 67 67 67 66 65 64 65 67 65 66 65 66 66 67 68 67 67 67 67 66 65 65 65 66 66 66 66 67 66 66 65 65 65 64 63 63 63 64 64 63 64 65 65 65 64 64 63 63 66 66 66 65 65 65 66 66 66 67 69 73
67 67 67 67 66 65 65 64 65 65 64 68 65 66 67 67 67 66 66 67 67 65 64 64 64 64 65 66 66 66 65 65 64 64 64 63 63 62 63 64 64 64 63 63 63 64 64 64 63 64 65 66 66 66 65 65 65 65 66 66 67 70
67 67 67 66 66 65 64 64 65 64 65 67 65 66 67 66 66 66 66 66 66 65 64 64 64 64 65 64 65 65 65 64 63 62 63 63 63 63 63 63 63 64 63 62 64 64 64 64 64 64 64 66 65 66 65 65 66 66 66 66 68 70
67 68 67 66 65 65 65 64 64 64 65 65 65 66 66 66 65 65 66 66 66 66 65 65 65 64 64 65 64 64 64 64 63 62 63 64 64 63 63 63 64 64 63 63 63 63 63 63 62 64 64 65 64 65 65 65 66 66 66 66 66 67
67 67 67 66 66 65 65 64 64 65 64 65 66 65 65 65 65 65 65 65 66 66 66 64 64 63 64 64 64 64 64 63 63 63 64 64 64 63 63 63 64 64 64 63 62 62 62 63 62 63 62 63 63 64 64 65 66 66 66 65 65 64
67 67 66 65 65 65 64 64 64 65 65 65 65 65 65 64 64 65 65 65 65 66 66 65 64 65 66 64 64 64 64 63 63 63 64 64 64 63 63 62 62 63 62 62 62 62 63 62 62 61 62 62 63 63 64 65 65 65 65 65 64 63
67 66 66 65 65 64 64 63 64 65 66 65 65 64 65 64 66 65 65 65 66 66 66 65 65 65 65 64 64 64 64 63 63 64 64 63 63 63 62 63 62 63 64 62 61 60 61 62 61 61 61 61 62 61 62 63 63 64 64 64 64 64
67 66 66 65 65 64 64 64 65 65 65 65 65 64 65 66 66 66 65 65 66 66 66 66 66 65 64 64 63 62 63 63 63 64 63 62 62 62 62 62 62 62 62 62 62 61 61 60 61 61 61 62 62 62 63 62 63 64 64 64 64 64
67 66 65 65 65 64 64 64 65 66 65 65 65 65 65 66 66 65 64 64 64 66 66 66 66 65 64 63 62 62 62 63 64 63 62 62 62 63 61 60 61 62 61 61 62 61 62 60 60 61 61 61 62 63 63 63 63 63 64 64 63 63
66 66 65 65 64 64 64 64 65 65 64 64 64 65 65 65 65 65 63 63 64 65 64 65 65 64 64 63 62 62 62 63 63 63 63 62 61 61 61 61 60 62 62 61 61 61 61 60 61 61 62 62 62 62 63 64 64 63 64 63 63 63
65 66 65 65 64 64 64 65 64 64 65 64 63 63 63 64 65 64 64 63 64 65 64 64 64 64 63 63 62 63 62 63 63 62 63 62 60 59 60 61 61 61 63 62 61 60 60 61 62 62 62 62 62 62 62 63 63 64 62 63 62 63
66 65 65 64 64 64 64 64 64 63 63 63 63 62 62 63 65 64 64 64 65 65 65 64 64 64 63 63 62 62 62 62 63 62 62 61 60 61 60 59 61 61 61 60 60 60 61 62 62 63 62 62 62 62 62 63 63 63 63 64 65 65
65 65 65 63 63 63 63 63 62 63 63 63 62 63 61 62 64 64 64 64 64 64 65 65 64 64 64 63 63 63 63 62 62 62 62 62 60 60 60 60 60 61 60 61 61 61 62 62 62 62 62 62 62 62 63 63 63 63 63 64 64 64
65 65 64 63 63 63 62 61 62 62 62 61 62 62 62 62 63 63 64 65 65 65 65 65 65 64 63 65 63 63 63 62 63 63 62 62 61 61 61 61 61 61 61 59 60 61 61 61 60 59 61 61 61 62 63 63 62 62 62 63 64 64
65 65 64 63 62 63 63 63 62 61 60 60 61 62 61 61 62 64 64 65 65 64 64 65 65 64 64 63 63 63 62 62 63 63 62 61 60 62 61 61 61 60 60 59 59 60 61 59 57 57 57 58 59 61 61 60 61 62 62 63 63 64
65 64 63 63 62 62 62 62 61 60 62 60 61 61 62 63 64 64 63 64 64 64 64 64 64 64 64 63 63 62 63 62 62 64 62 60 60 60 61 61 61 61 59 60 60 60 60 58 56 56 57 56 54 54 58 59 61 61 62 62 63 64
65 64 63 64 64 63 64 63 62 62 61 60 61 62 62 63 63 63 62 63 63 64 64 64 64 64 63 62 62 62 62 61 60 61 61 61 59 61 60 60 60 60 61 59 57 59 60 58 58 58 54 50 52 54 53 56 57 59 61 62 63 63
65 63 63 64 64 64 64 63 63 62 63 62 63 62 62 61 61 63 63 62 62 63 64 63 63 63 63 62 61 60 61 61 60 60 61 60 60 61 62 61 61 61 61 60 57 57 58 59 60 58 56 53 51 51 53 56 58 57 59 60 61 63
63 62 63 63 64 65 64 62 61 61 61 59 60 60 60 60 60 61 61 60 61 62 63 62 62 62 63 62 61 60 60 61 60 60 60 60 60 58 59 60 61 62 59 58 60 56 56 58 59 60 58 56 55 53 54 56 56 53 59 59 61 62
63 62 63 63 64 64 62 62 63 63 61 61 60 58 58 58 60 58 60 60 60 60 61 61 60 60 60 60 59 58 59 59 60 58 59 59 59 59 60 60 60 60 60 59 59 57 58 58 57 58 58 57 58 57 59 55 52 56 54 57 59 59
63 63 63 63 64 64 63 63 63 62 62 60 60 58 58 58 58 60 59 59 59 59 59 60 60 59 59 60 59 58 59 59 59 59 61 58 58 57 59 59 58 58 59 60 60 59 57 57 58 57 58 57 57 58 55 54 56 55 55 53 55 59
62 62 62 63 63 64 64 62 63 63 61 61 60 59 59 59 58 59 58 58 59 58 58 58 59 59 58 60 61 60 59 59 59 59 60 59 57 57 57 58 58 58 58 56 58 58 58 56 56 56 56 56 57 55 56 56 55 55 53 54 53 55
60 61 60 61 62 62 63 63 62 62 62 60 60 59 59 58 58 58 58 56 57 58 57 57 56 56 58 59 60 59 59 58 58 59 60 58 57 57 56 56 55 56 56 56 55 58 58 56 55 56 57 57 56 54 56 56 53 55 55 54 54 54
60 61 61 60 61 62 63 63 63 62 62 60 60 60 59 58 58 58 58 56 57 57 56 57 57 57 57 58 58 59 58 58 58 60 59 58 57 57 56 56 56 56 55 55 55 55 55 55 55 55 56 57 57 58 55 53 54 53 51 52 53 53
60 61 61 60 60 61 63 63 63 63 62 61 60 60 60 58 58 58 57 56 55 56 55 56 56 56 56 57 58 57 57 57 57 57 57 57 56 57 56 56 55 55 54 53 53 55 54 55 54 55 54 55 55 56 56 57 56 54 55 55 56 54
59 60 60 60 60 60 61 63 63 63 63 62 62 61 59 58 57 57 57 56 56 55 55 58 55 57 56 56 58 57 57 57 56 56 56 56 55 55 56 55 55 54 53 53 52 53 54 52 54 56 54 53 54 56 55 55 56 56 55 56 56 53
59 59 59 59 59 59 60 61 62 63 63 63 61 61 59 59 57 57 58 57 57 56 56 56 55 56 55 56 57 57 57 55 55 54 55 54 54 55 55 56 55 54 54 52 52 53 53 52 52 52 53 55 55 55 55 57 57 58 57 57 55 55
60 59 60 59 59 59 59 60 61 62 63 62 61 60 59 59 58 57 57 58 56 55 57 55 56 56 56 56 55 56 56 55 55 54 55 55 56 54 54 56 55 54 54 52 53 54 53 54 55 53 53 54 55 55 55 56 57 57 59 59 58 56
60 60 60 59 58 59 59 60 61 61 62 62 61 59 58 58 57 58 58 58 56 55 57 55 55 55 56 57 57 56 55 54 54 54 54 53 53 54 53 54 54 55 55 56 54 53 52 53 52 51 52 52 56 54 56 56 57 56 57 56 57 56
59 59 60 58 58 59 59 60 59 60 60 60 60 59 59 58 57 56 57 57 56 55 55 56 57 55 55 55 56 56 55 54 54 54 53 53 53 51 52 54 55 54 54 52 54 52 52 54 50 52 52 53 53 53 54 57 57 57 56 55 56 55

ECMWFFLT2_sfc_temp_075.txt.gz
Temp
78 78 78 78 78 77 76 75 75 75 74 74 74 75 75 75 75 76 76 75 74 76 76 76 76 77 73 74 74 74 75 75 75 75 74 73 73 73 73 73 72 72 72 71 71 71 72 72 72 73 73 73 73 78 79 79 79 80 80 80 79 80
78 77 78 78 77 77 77 77 78 77 77 76 75 75 76 77 76 77 75 75 76 76 76 77 77 75 77 77 76 74 74 75 75 74 73 73 73 73 73 72 72 71 71 71 70 77 74 72 72 73 73 73 78 80 79 79 79 80 80 80 80 77
78 78 78 77 77 77 77 77 77 77 77 76 76 76 77 77 78 77 77 77 75 76 76 77 77 77 77 76 76 74 74 74 74 73 73 73 73 72 72 71 70 70 70 69 74 75 76 77 77 73 74 77 80 80 79 78 79 79 80 80 81 74
77 78 77 77 77 76 75 75 76 77 77 76 76 76 76 76 76 76 76 75 74 76 76 76 75 75 75 77 75 73 73 74 73 73 72 74 72 71 71 70 69 70 72 76 77 77 78 78 78 77 77 76 78 79 79 79 80 80 80 80 82 73
77 77 77 76 75 74 74 75 76 76 75 75 73 74 74 75 75 75 76 74 76 76 76 77 77 77 78 77 77 77 76 76 76 75 73 76 76 76 75 77 75 73 74 76 79 78 78 77 76 76 77 76 76 77 79 79 80 80 80 80 78 73
76 76 76 74 73 72 72 72 73 73 72 73 73 72 72 73 74 74 74 75 75 75 74 75 76 76 76 76 76 77 77 76 75 74 76 76 76 75 75 75 74 74 72 73 75 78 78 78 77 76 76 76 76 76 80 81 80 79 80 80 77 73
73 74 74 74 73 72 71 72 72 72 72 70 72 71 72 72 73 74 74 74 73 73 74 75 74 74 74 75 75 76 76 75 75 75 74 75 73 74 74 73 71 72 73 75 77 78 77 78 79 78 75 75 76 78 79 80 80 80 80 80 77 73
73 73 72 72 71 70 70 70 70 71 70 70 70 71 71 72 73 72 73 73 73 75 75 74 72 71 71 72 73 74 75 73 72 72 71 71 70 72 71 70 70 70 73 77 79 78 78 79 78 79 77 76 77 79 79 80 80 80 80 80 79 74
72 72 71 71 70 69 69 69 70 69 69 71 71 71 71 72 72 73 73 74 74 73 72 71 72 73 73 73 73 73 72 72 71 70 69 69 69 69 69 70 69 68 70 73 77 77 78 77 77 78 80 80 80 80 79 79 79 79 80 80 79 77
71 71 70 70 69 68 68 69 68 69 70 71 70 71 72 71 72 72 72 73 74 73 70 71 71 71 71 71 73 73 71 71 71 72 73 70 68 69 68 70 69 69 70 73 76 75 77 77 77 78 80 81 80 81 79 80 80 80 80 79 79 78
71 70 70 68 67 67 68 67 66 69 71 71 71 71 71 71 72 72 72 73 73 73 72 72 71 70 69 70 72 73 73 74 72 71 71 69 68 67 67 68 69 71 70 72 74 76 76 75 76 79 79 81 80 80 80 80 81 81 81 80 79 78
70 70 70 68 68 67 67 67 67 69 70 71 72 71 70 71 71 71 72 72 72 74 73 72 72 71 72 72 72 71 71 73 71 69 70 70 70 68 68 68 69 71 71 72 73 72 73 74 74 76 79 79 79 80 79 79 81 80 79 78 77 77
70 70 69 68 68 68 66 67 68 69 70 71 71 71 70 70 70 71 73 73 74 75 74 73 72 72 72 73 72 70 69 69 70 71 70 69 69 69 70 69 69 71 72 73 72 71 73 74 74 74 75 76 77 79 80 80 78 77 77 77 77 76
71 69 68 68 67 67 68 68 69 70 70 70 71 69 70 71 71 72 73 74 74 75 75 74 74 72 72 71 70 70 69 69 69 69 70 70 70 71 71 71 70 70 69 70 69 71 72 71 69 70 71 71 71 72 75 77 77 77 75 76 73 73
69 68 68 68 67 68 69 69 69 70 70 71 71 70 70 71 72 72 73 74 75 74 75 75 75 75 74 72 71 70 70 72 71 70 70 70 70 69 71 72 71 70 69 70 70 69 70 69 70 70 69 71 71 73 74 74 74 75 75 73 72 73
68 67 67 67 68 68 69 69 69 69 70 70 69 70 70 71 71 71 72 73 75 75 75 75 75 75 73 73 72 72 72 71 70 70 70 69 70 69 69 69 69 70 69 71 72 69 69 69 69 69 70 70 70 71 73 73 73 74 75 70 70 71
67 66 66 67 67 68 68 68 69 69 70 70 68 69 70 70 70 70 72 72 74 74 74 74 75 75 74 72 69 71 70 70 71 71 70 70 70 70 69 68 69 70 73 72 73 70 68 69 69 69 70 70 70 71 71 71 71 72 72 69 70 70
66 67 67 67 68 68 69 70 69 69 69 68 69 70 70 71 70 70 72 73 74 73 71 74 73 73 73 71 71 71 69 70 71 71 71 71 70 70 70 70 68 69 71 72 72 70 68 69 69 69 68 68 69 70 70 71 71 71 70 69 67 67
67 66 66 67 68 68 69 69 70 68 67 68 69 68 68 69 70 72 73 73 74 74 75 74 74 74 73 73 72 71 70 70 70 71 71 70 70 70 69 70 69 67 69 71 71 70 70 70 69 68 68 67 68 68 70 70 71 70 69 68 67 66
67 67 67 66 67 67 67 67 65 65 65 66 67 68 69 70 71 72 73 74 74 74 75 74 74 74 73 72 71 70 70 70 70 70 69 69 68 69 69 68 68 68 67 68 70 70 70 70 69 67 66 67 67 68 68 69 68 67 67 67 66 67
67 67 67 66 65 65 65 65 66 65 65 66 67 68 69 71 71 73 74 75 75 73 74 74 74 74 73 72 71 70 70 70 69 70 70 69 69 70 70 69 67 69 68 66 67 68 69 70 67 64 65 66 66 67 67 68 68 68 69 70 70 68
64 64 65 66 66 66 67 68 68 67 67 67 67 67 68 69 70 72 73 74 74 74 73 73 73 73 73 73 71 70 70 70 70 70 71 70 68 68 68 68 68 67 68 67 66 68 69 70 67 65 62 61 63 66 67 67 67 68 69 69 69 69
65 64 65 66 66 67 69 71 70 68 68 67 70 70 71 71 71 72 72 73 73 73 73 73 73 74 73 73 73 72 71 71 71 71 71 70 69 68 69 69 70 69 66 68 67 69 69 70 68 67 68 66 62 62 63 65 66 66 68 68 68 69
65 65 65 67 68 69 70 71 71 69 68 68 68 69 70 69 69 70 70 71 72 72 73 74 75 75 74 73 73 72 73 71 71 72 71 69 68 69 69 69 69 69 69 66 66 65 69 70 71 68 64 65 62 63 59 59 60 63 67 68 68 69
65 65 66 67 68 69 69 68 67 67 68 68 68 68 67 67 67 69 69 70 71 73 73 74 74 75 75 73 73 73 73 73 72 72 72 71 70 70 72 72 72 70 69 68 66 65 66 68 70 70 69 63 62 62 62 61 62 61 64 64 65 66
66 66 66 67 68 68 67 65 64 64 64 64 64 65 65 66 67 68 70 71 72 73 74 73 74 74 75 74 73 73 73 73 72 72 72 73 72 71 71 71 73 72 70 70 70 67 64 68 70 68 68 68 68 66 63 64 64 56 63 63 63 66
66 66 66 67 68 68 66 67 67 68 69 67 66 67 69 69 69 72 71 70 71 72 74 73 73 74 73 74 73 73 73 73 74 73 73 72 72 72 73 73 73 72 73 72 70 68 67 66 68 66 67 68 69 70 71 67 63 62 57 59 62 63
66 66 67 67 68 69 68 69 69 70 70 69 69 67 68 69 71 71 71 71 71 71 72 73 73 74 74 73 73 73 73 72 73 74 73 73 73 73 73 73 72 72 72 72 71 70 69 69 67 66 66 67 67 69 70 70 71 67 63 56 56 61
66 66 66 67 68 69 70 70 70 69 68 71 71 70 70 70 70 70 69 70 71 72 71 71 73 72 72 73 72 72 72 72 72 73 74 74 73 73 72 71 70 70 70 71 72 71 71 70 70 68 66 67 69 69 70 70 70 70 65 62 58 57
65 66 67 67 68 69 69 69 69 69 68 67 68 69 71 69 70 70 69 69 69 70 71 70 70 71 71 73 72 73 73 73 72 72 73 74 73 71 71 71 71 71 71 70 71 71 70 71 71 70 71 68 67 68 69 69 68 68 68 68 61 57
65 66 67 65 65 67 68 69 69 68 67 66 67 68 68 68 69 69 69 68 69 70 71 71 71 70 70 72 71 72 72 72 72 72 73 72 72 73 72 71 71 71 71 71 71 70 70 70 71 69 69 70 70 70 69 67 67 68 67 63 60 60
64 64 62 63 65 65 67 68 67 68 67 67 67 68 69 68 68 69 68 68 69 69 69 69 70 70 69 71 71 71 71 71 71 71 71 72 72 73 72 72 71 71 71 70 71 70 71 69 69 71 69 70 72 72 71 71 72 71 68 66 64 62
61 62 63 64 64 64 64 64 65 65 66 66 66 67 67 68 69 68 68 67 68 69 69 69 70 70 69 69 71 70 71 71 71 70 70 71 70 70 71 71 71 70 70 70 70 70 71 70 70 70 71 71 72 73 72 73 73 71 71 70 68 65
61 63 64 67 67 66 66 65 64 65 66 66 66 66 67 65 65 67 69 69 70 70 70 70 69 70 70 70 71 71 71 70 70 70 70 69 69 70 70 73 71 70 69 68 69 69 70 69 70 70 71 70 71 72 72 72 72 71 70 69 68 66
60 62 64 66 68 67 68 68 69 69 68 69 68 69 68 67 66 68 70 71 71 71 71 70 71 70 69 69 69 69 69 69 69 69 69 69 69 69 68 71 71 68 67 68 68 69 69 69 68 69 69 71 70 71 71 73 72 72 73 71 69 67
62 63 63 65 67 68 68 69 69 69 69 69 69 69 68 67 67 68 70 71 70 70 71 70 69 68 68 69 69 68 69 69 69 69 69 69 69 70 68 69 69 68 67 68 67 67 68 68 68 68 69 70 71 71 71 72 73 73 74 72 71 70
64 65 64 64 66 67 67 68 68 69 69 68 68 68 67 66 66 68 69 71 70 69 68 69 68 68 67 68 69 69 69 68 68 68 68 69 69 69 69 70 70 68 67 68 68 68 67 69 68 68 69 69 71 70 70 71 73 72 72 72 73 72

ECMWFFLT2_sfc_temp_078.txt.gz
Temp
81 81 81 82 81 79 78 76 76 75 75 75 75 75 76 75 75 76 76 75 74 78 77 75 76 79 73 77 73 74 74 74 74 74 74 74 74 74 74 73 73 73 73 73 72 72 72 73 73 73 73 73 73 81 87 87 87 87 87 87 84 83
80 80 81 79 79 77 78 77 81 79 79 77 76 76 78 80 79 79 75 77 77 74 75 75 76 75 78 77 76 74 74 74 74 74 74 74 74 74 73 73 73 73 72 73 71 80 77 73 73 73 73 73 78 87 85 86 86 87 87 87 83 78
83 82 82 80 78 79 80 80 80 81 80 78 79 81 82 81 82 80 79 79 72 72 75 74 76 79 79 76 77 75 75 75 74 74 74 73 73 73 72 72 72 73 72 70 79 82 83 83 79 73 74 77 82 84 84 85 86 86 87 86 83 75
83 83 82 83 80 77 77 77 81 82 81 81 81 82 81 81 81 77 78 79 78 79 78 74 73 75 77 77 77 74 74 74 74 73 73 75 73 73 72 71 71 71 73 81 85 83 82 83 81 80 82 82 84 82 81 84 87 86 87 87 84 74
82 82 80 81 79 74 75 74 82 83 82 81 80 80 79 80 80 80 80 79 81 80 81 82 78 80 81 82 81 79 78 77 76 76 74 82 81 81 79 83 79 78 84 85 86 84 82 82 82 83 83 84 84 84 85 83 84 87 86 82 79 74
82 82 80 78 78 74 74 75 81 82 81 79 79 78 79 79 79 79 80 82 82 81 82 82 82 81 81 81 81 81 80 80 80 79 80 82 84 81 81 84 83 81 82 84 84 82 82 82 83 84 85 84 84 84 85 84 83 85 84 80 78 73
80 80 76 79 80 79 81 80 80 81 80 78 79 77 76 78 79 79 79 80 80 80 81 82 81 81 80 81 80 82 83 83 82 82 82 83 80 80 81 82 82 81 81 83 84 83 83 83 84 86 84 86 85 84 83 83 83 86 84 81 77 73
79 78 79 79 76 75 77 77 78 78 79 77 76 72 74 75 77 76 78 79 79 80 80 81 80 80 81 81 81 82 82 82 81 81 80 81 80 81 81 81 81 82 83 83 84 84 83 83 84 85 85 85 85 85 85 87 86 85 82 80 80 75
77 76 75 74 72 71 73 77 78 78 78 77 78 78 75 74 73 76 77 78 78 78 81 80 78 79 79 78 77 78 79 79 80 79 78 77 77 76 76 76 77 80 80 81 81 80 83 85 84 85 85 86 86 86 86 85 85 85 84 83 79 78
74 74 74 73 71 72 72 73 75 75 77 77 77 78 74 72 72 72 76 76 77 77 79 79 77 78 78 76 76 76 77 77 77 77 75 73 75 77 76 75 73 75 78 77 78 78 82 84 86 86 87 86 86 87 86 86 85 86 85 84 81 77
74 73 72 69 71 72 73 72 72 74 75 75 76 75 71 70 71 77 78 76 76 77 79 79 79 79 79 78 78 78 78 78 77 75 76 75 75 74 76 76 76 76 77 79 77 79 82 83 84 88 88 88 86 86 87 86 87 87 86 84 78 73
76 72 70 69 70 71 71 74 75 76 75 73 73 76 73 73 75 78 77 75 75 78 80 79 78 78 78 78 78 78 79 78 77 78 79 79 77 73 72 72 73 75 75 78 79 81 82 82 84 86 87 87 87 87 86 86 87 86 85 82 73 72
75 74 72 70 71 71 71 75 76 75 77 73 75 77 78 79 75 77 77 77 78 79 79 79 77 78 78 78 76 76 78 78 78 78 77 76 75 76 75 76 77 78 79 80 81 80 83 82 82 83 84 84 86 86 86 87 85 83 82 81 74 70
73 75 74 71 70 69 71 71 72 74 76 77 77 77 76 76 70 78 78 78 79 80 80 79 79 77 78 77 76 76 76 75 75 75 76 76 78 79 80 79 79 79 78 80 79 79 80 79 80 82 81 81 82 82 84 86 84 79 78 72 74 79
72 73 73 71 70 69 69 70 75 75 76 77 77 76 76 71 72 76 78 79 79 78 80 80 80 78 77 77 76 75 74 74 74 75 76 76 78 78 78 77 78 77 77 78 77 77 78 78 79 79 78 79 80 81 81 82 75 74 77 74 77 77
71 70 72 71 70 69 70 70 74 75 76 76 77 76 74 67 70 72 76 79 79 79 79 79 79 79 76 77 77 76 75 75 75 75 75 74 75 75 76 76 77 76 75 76 78 78 79 77 77 77 77 77 77 79 79 76 69 74 75 75 76 75
73 71 70 70 69 70 70 70 73 72 75 76 77 76 75 74 74 71 79 81 80 77 78 79 77 77 77 77 77 77 78 76 77 77 75 75 76 77 77 76 76 77 77 77 80 77 77 77 76 75 76 76 77 77 76 73 67 70 75 71 74 74
73 72 69 68 69 69 69 71 73 74 75 76 75 76 74 75 76 78 79 81 80 78 77 78 79 79 78 78 78 78 77 76 77 76 76 76 77 78 78 77 75 77 79 79 80 76 75 77 77 75 75 76 76 76 75 74 73 68 71 72 73 74
69 67 67 68 69 70 71 73 75 74 74 76 75 74 75 76 77 78 79 79 79 79 79 79 79 79 78 78 78 78 76 76 77 76 75 75 75 76 76 77 76 75 77 80 79 77 77 77 75 75 74 74 75 75 76 75 75 68 70 69 73 74
68 69 70 69 70 71 72 73 72 74 75 75 77 75 76 78 77 78 79 79 79 78 81 79 80 79 77 77 77 77 76 77 77 77 76 75 75 76 75 74 75 74 74 76 78 77 77 76 74 73 72 73 74 75 75 75 72 70 72 73 73 74
69 70 71 70 70 71 72 73 73 74 73 74 75 76 76 77 77 79 80 81 80 80 80 79 79 78 76 76 77 77 77 77 78 77 75 75 75 76 76 75 74 75 74 73 74 76 75 76 73 72 73 73 73 74 74 74 68 68 69 70 72 75
71 70 70 71 73 74 75 76 74 74 75 75 75 75 75 76 77 79 79 79 80 81 80 78 78 78 77 78 78 77 77 76 76 77 77 77 75 75 75 75 74 73 76 74 73 74 75 75 72 72 70 70 71 73 74 72 67 68 69 73 75 76
71 71 71 73 74 74 75 76 76 75 75 75 77 76 79 79 79 80 78 79 79 79 78 78 78 78 78 79 78 78 78 78 77 78 77 75 75 73 74 74 74 74 73 75 75 76 75 76 74 74 75 71 68 68 70 72 70 67 70 72 72 73
72 72 72 72 74 74 75 75 76 75 75 75 75 75 76 77 77 78 78 79 79 77 77 78 80 81 81 80 78 78 79 78 77 78 77 76 75 75 75 75 75 74 74 72 73 72 76 74 73 74 68 68 71 69 60 65 66 68 70 67 71 73
73 72 72 72 73 73 73 74 74 74 75 74 75 75 74 73 74 75 77 77 76 77 78 79 80 81 82 79 79 79 78 78 77 77 78 77 76 76 78 78 77 76 75 74 72 72 74 74 73 71 66 71 67 67 67 66 66 65 70 69 68 72
72 72 72 72 72 72 73 72 71 70 69 71 71 71 72 72 74 74 75 76 78 79 79 80 80 80 81 79 78 78 78 78 77 76 76 77 77 77 77 77 78 77 75 75 73 72 71 73 73 74 74 71 71 66 70 69 69 59 65 68 70 71
72 72 73 71 70 69 69 72 72 72 72 72 72 73 76 76 75 76 76 75 77 77 80 79 79 80 79 79 78 78 77 77 77 77 76 76 76 76 77 78 77 77 77 76 75 72 71 72 73 74 76 74 75 77 76 71 68 66 60 63 68 68
72 69 66 64 65 68 70 71 72 73 74 74 75 74 74 75 76 76 75 75 78 78 79 80 79 80 80 79 78 77 77 77 78 78 77 77 77 78 78 78 76 76 75 75 74 72 70 72 70 72 74 74 74 75 75 74 75 72 68 63 61 65
68 65 65 65 65 69 71 71 73 73 73 75 76 76 76 76 75 75 74 75 77 78 78 78 79 79 79 79 78 77 77 76 76 77 78 79 78 79 77 76 75 74 73 73 74 73 67 69 71 71 72 71 74 74 75 75 74 74 72 67 63 62
65 65 65 67 67 69 70 70 69 72 72 73 74 74 75 73 74 74 73 74 75 76 77 77 78 79 78 79 78 78 77 77 77 78 79 80 78 77 77 76 76 74 74 73 74 74 71 67 70 67 73 73 72 72 73 73 74 73 72 72 64 63
65 65 65 68 69 67 66 68 67 70 72 72 73 73 73 72 73 73 73 74 75 76 77 76 77 76 77 79 78 79 78 79 79 78 80 80 78 79 78 76 76 76 75 74 75 75 75 72 73 73 74 75 75 74 72 70 71 70 70 69 68 66
64 64 63 68 68 68 70 71 71 72 72 72 73 73 73 73 74 74 74 74 76 76 76 77 76 76 76 77 77 78 78 78 78 78 78 79 79 80 79 79 77 75 75 76 76 75 74 74 73 74 73 76 72 69 71 74 74 70 70 71 71 68
64 65 65 67 65 68 68 68 71 72 72 73 73 74 74 72 74 74 74 74 74 75 76 75 76 76 76 76 77 76 77 77 77 77 78 78 78 79 78 78 77 77 76 76 76 76 75 74 74 74 74 76 76 73 74 77 77 75 74 75 73 69
68 69 68 69 69 69 69 70 72 71 70 71 72 74 74 73 72 73 74 74 75 75 75 74 75 76 77 77 78 78 77 77 78 78 77 77 77 78 78 79 77 76 76 77 77 76 76 75 75 75 76 76 76 78 78 78 77 76 75 74 72 70
70 69 70 70 70 69 71 70 71 70 70 71 70 73 75 74 73 73 73 74 75 76 77 77 77 77 77 77 77 77 77 77 77 77 77 77 77 77 77 80 80 77 77 77 76 77 77 76 75 75 74 76 76 77 77 79 78 78 78 76 74 71
72 70 71 71 71 71 72 72 70 68 69 70 72 74 73 71 73 74 74 74 75 77 78 78 77 76 76 77 77 77 77 77 77 77 77 78 78 79 77 78 78 77 76 79 76 75 76 76 75 74 75 76 77 77 77 78 79 79 78 77 76 74
72 71 72 72 71 72 73 73 71 71 71 72 72 72 70 70 71 73 74 75 76 77 77 76 75 76 76 77 77 77 77 76 76 77 77 77 78 78 77 78 77 76 76 77 77 76 76 76 76 76 76 75 77 76 77 77 78 78 77 77 78 77

ECMWFFLT2_sfc_temp_081.txt.gz
Temp
76 79 80 80 79 79 77 76 76 75 75 75 75 76 76 76 76 76 76 75 74 78 78 78 78 79 75 77 74 74 75 75 75 75 74 75 75 75 75 74 74 74 73 73 73 73 73 74 73 73 73 73 73 78 86 88 89 88 86 84 81 80
71 74 74 73 76 78 77 78 80 79 79 78 76 76 77 78 78 78 75 75 77 76 78 78 78 76 76 76 76 74 75 75 75 75 74 74 74 74 74 74 74 74 73 73 72 79 76 73 73 74 73 73 78 84 86 87 87 88 86 83 81 77
71 71 71 72 72 78 78 80 80 81 80 78 79 79 79 79 78 77 77 75 72 73 77 74 76 77 76 74 75 73 74 74 74 75 74 74 74 74 74 74 73 74 73 71 77 84 82 81 79 73 74 77 82 85 84 85 87 87 85 82 80 75
72 71 71 72 73 76 76 78 80 81 81 81 81 80 78 78 79 78 77 75 74 76 77 74 75 75 74 76 75 73 73 74 74 74 73 75 73 74 73 72 73 72 73 80 85 86 85 84 82 80 81 82 86 85 85 85 88 85 84 82 81 74
72 71 71 71 71 75 76 79 79 82 83 83 83 82 78 78 76 75 76 73 74 75 75 74 73 74 77 76 76 77 76 77 78 78 75 80 79 80 77 82 80 78 83 84 87 86 87 85 82 82 81 83 85 85 86 86 84 84 81 79 77 74
71 71 71 70 71 74 76 77 79 82 83 83 83 78 74 74 73 74 72 73 72 71 72 72 73 73 76 76 78 80 80 81 81 79 78 82 80 78 80 83 82 82 84 86 86 85 86 85 83 80 81 82 85 84 87 88 85 83 81 78 77 75
70 69 70 72 72 76 77 79 81 83 82 82 80 76 74 74 73 74 72 72 69 69 71 74 75 75 76 79 79 79 81 81 80 81 80 83 81 79 81 84 83 82 85 86 87 87 86 86 85 85 83 86 87 86 87 87 84 82 81 79 76 74
71 70 70 71 72 74 76 78 76 80 80 76 76 78 76 75 71 70 71 71 71 69 69 70 73 75 74 80 81 79 80 81 82 83 83 83 82 83 83 83 82 82 83 85 87 86 87 87 86 85 86 87 87 86 86 87 81 81 79 79 76 74
72 71 70 71 74 74 75 74 75 79 76 74 76 76 75 71 70 70 71 74 74 72 72 71 74 76 80 81 81 80 82 82 82 82 82 83 83 81 82 82 80 80 82 84 86 85 86 86 85 84 86 87 87 87 86 83 80 76 77 75 77 75
73 72 71 72 74 73 72 70 73 73 72 73 72 72 74 73 73 75 75 79 80 77 74 80 80 81 82 80 80 80 80 80 80 80 81 80 81 79 77 77 77 78 81 82 84 83 84 84 84 85 87 88 86 83 76 84 75 71 73 74 75 74
72 73 73 72 74 73 73 73 75 78 77 71 70 71 74 75 76 75 75 78 79 79 81 81 81 81 80 79 79 79 79 79 77 77 78 78 80 80 80 79 78 77 78 80 80 81 81 80 82 86 87 86 83 77 78 77 72 70 71 72 73 74
73 75 76 75 75 74 72 73 77 79 77 72 72 74 76 76 75 74 74 74 77 79 81 81 80 80 80 80 80 81 80 79 79 79 79 78 77 77 79 79 79 80 79 79 78 81 82 82 83 87 87 85 77 75 71 70 69 69 69 70 73 74
75 75 76 76 75 76 77 78 79 80 78 76 75 76 75 76 75 73 71 72 78 80 80 80 79 80 81 82 81 79 81 80 80 80 80 79 79 79 79 79 79 80 80 80 81 81 84 84 83 85 86 84 71 70 69 70 70 68 68 70 72 72
74 75 76 77 76 75 77 78 79 79 73 76 77 74 72 71 72 71 72 73 77 79 80 79 80 79 81 80 79 79 78 79 80 79 79 78 79 78 79 79 78 79 80 81 79 80 81 81 83 84 83 77 71 69 72 73 70 70 71 72 72 73
73 73 73 74 75 77 78 78 79 80 75 74 70 71 72 74 75 72 72 73 72 76 79 81 81 79 79 79 78 76 77 80 80 79 80 80 79 76 77 76 78 81 80 81 80 80 80 80 79 82 81 82 73 72 71 72 73 72 72 73 71 71
70 70 71 72 74 75 75 76 79 80 78 77 73 77 73 78 78 77 73 70 70 74 81 81 79 77 74 78 78 77 79 79 78 78 79 78 79 80 79 79 80 80 78 79 79 79 80 79 80 80 80 80 75 70 72 73 75 72 68 70 71 72
69 69 70 72 73 74 74 76 78 78 78 77 78 80 77 77 78 76 73 73 71 76 79 79 76 75 73 72 74 76 79 77 78 77 78 78 79 79 78 77 77 78 79 75 76 75 78 77 78 78 79 79 76 71 73 74 75 76 74 70 72 73
70 71 71 73 73 73 74 75 76 77 76 78 79 80 78 77 77 76 75 76 76 75 75 75 74 71 71 70 74 74 76 76 76 77 76 78 76 77 77 77 75 77 77 74 68 73 73 78 79 78 78 78 77 74 72 73 73 73 74 73 70 73
72 72 72 73 73 74 74 75 76 76 77 77 78 78 77 76 76 75 75 75 75 75 76 76 76 74 71 69 74 73 73 72 74 75 73 76 71 71 72 73 77 75 75 72 68 69 73 78 77 77 77 77 77 71 71 72 74 74 74 74 75 71
73 73 73 73 73 74 75 75 73 76 77 75 76 77 76 74 74 75 75 73 74 74 76 75 74 72 71 69 68 72 70 72 73 78 77 77 76 78 75 75 76 77 76 77 71 73 79 76 77 73 72 75 72 69 70 71 74 73 73 73 73 71
73 74 73 73 74 74 73 74 75 76 76 76 77 77 75 74 74 76 74 74 73 74 76 74 71 70 67 68 68 69 73 74 74 75 76 76 77 77 77 77 76 76 77 75 77 79 77 79 74 70 70 68 68 70 70 73 73 74 72 73 75 74
74 74 74 74 74 75 75 77 76 77 76 76 77 74 74 74 74 74 73 74 74 75 74 73 70 69 68 71 70 72 73 77 78 77 74 77 77 76 76 76 76 76 77 76 75 77 77 76 71 69 67 64 66 69 71 72 73 73 74 73 71 69
73 74 74 75 75 75 76 77 76 75 74 77 80 77 76 74 76 74 71 72 74 74 72 71 70 69 73 74 72 72 75 75 78 76 74 75 76 75 76 75 75 75 75 77 77 77 76 76 70 65 66 66 62 62 66 69 71 72 73 73 69 68
72 74 74 75 75 76 76 75 74 73 73 76 75 78 76 74 75 71 72 72 72 70 70 72 76 76 71 71 71 72 73 77 73 74 73 73 74 75 76 75 75 77 76 74 75 74 75 73 71 68 60 63 62 66 62 61 65 70 72 68 68 69
71 74 74 74 72 72 74 73 73 73 76 76 77 76 71 73 73 73 72 73 69 72 75 79 80 82 78 73 74 75 73 74 75 71 72 70 73 75 77 78 77 76 76 74 70 73 74 72 70 72 69 65 61 58 61 64 66 64 70 69 68 71
71 71 71 69 70 71 72 73 71 69 68 70 70 67 68 69 74 73 73 74 76 77 81 79 78 79 78 75 76 78 73 75 75 76 72 72 73 74 77 74 74 75 76 75 73 71 68 73 73 71 71 71 71 63 62 67 68 59 66 69 69 73
68 67 69 70 73 72 72 71 72 73 71 70 67 69 70 72 74 76 75 74 76 79 80 78 80 80 79 78 77 78 78 77 76 77 76 72 73 75 76 75 76 73 75 75 73 72 72 71 74 74 72 72 70 67 70 66 63 65 60 64 67 69
66 66 70 73 70 73 72 73 72 69 67 67 69 70 71 72 74 75 76 77 79 78 80 80 79 81 80 80 79 77 78 77 75 76 77 76 76 76 76 74 75 75 73 72 72 71 71 72 70 71 76 73 73 73 71 69 72 68 66 62 60 68
64 66 69 72 72 73 74 72 71 70 67 70 68 69 70 72 72 76 73 75 76 79 79 79 80 80 80 81 79 78 78 78 75 74 78 79 73 78 74 74 74 74 74 71 71 71 71 72 71 70 72 70 71 75 76 73 70 71 68 64 62 64
64 64 67 71 72 73 74 73 72 71 70 69 69 69 70 71 74 71 72 72 70 74 78 77 78 80 79 79 78 78 78 78 78 79 79 79 79 75 74 75 75 75 74 72 71 72 72 73 74 71 71 70 73 74 75 75 74 68 67 70 64 65
65 66 68 70 72 72 73 72 72 71 70 68 67 68 68 67 66 69 68 68 69 74 77 77 76 78 78 79 78 79 79 79 79 79 81 80 78 78 77 73 75 76 75 75 74 72 72 73 73 72 73 72 73 72 71 72 72 73 70 68 67 66
66 66 68 70 71 72 73 73 73 73 71 69 67 66 67 63 68 67 67 67 72 76 76 77 78 77 77 78 78 78 79 79 79 79 80 80 80 81 79 78 77 75 75 74 74 72 72 72 72 73 73 73 71 71 71 72 75 74 69 70 70 68
67 68 69 70 70 71 72 73 73 73 71 69 66 66 65 69 69 70 71 72 74 75 76 76 76 76 76 77 78 77 78 78 78 79 79 80 80 81 80 78 77 77 77 75 73 72 69 71 73 71 73 72 72 75 75 74 75 73 72 71 71 68
68 68 69 71 72 72 71 72 73 72 71 69 66 67 66 67 68 68 70 73 75 76 76 76 76 76 77 79 79 79 79 79 79 79 79 79 79 79 79 80 78 77 77 77 76 75 73 71 71 69 72 71 75 76 74 73 74 74 72 69 68 68
69 69 70 71 72 72 71 72 72 71 68 65 67 66 66 67 68 68 71 74 76 77 77 77 78 77 79 79 78 78 79 78 78 78 78 78 79 78 78 81 79 76 76 76 77 74 74 75 75 74 73 74 72 72 73 73 72 73 74 72 71 70
71 71 72 73 72 71 72 72 71 69 68 67 68 66 66 66 68 68 74 76 76 76 77 78 78 78 78 79 78 78 79 78 78 78 78 79 78 79 79 79 79 77 77 79 76 76 76 76 75 75 74 73 73 70 74 76 75 75 78 77 76 74
72 72 73 73 72 71 72 71 71 71 71 69 69 67 66 68 72 74 76 76 76 78 77 76 76 77 78 78 78 78 78 78 77 78 78 79 79 79 79 79 78 78 78 78 77 77 76 76 75 76 76 76 74 75 75 74 76 76 75 76 76 75

ECMWFFLT2_sfc_temp_084.txt.gz
Temp
74 74 73 75 75 75 75 75 75 75 75 75 75 75 75 75 75 75 76 76 75 76 76 75 75 76 76 75 74 74 75 75 75 75 75 75 75 75 75 75 74 74 74 73 73 73 73 73 73 73 74 74 74 73 76 81 81 79 77 75 74 74
72 71 72 73 75 75 74 75 75 75 75 75 75 75 74 75 76 74 76 75 75 75 75 75 75 76 74 75 75 74 75 75 75 75 74 75 75 75 75 75 74 74 74 73 72 73 73 73 73 73 74 73 73 75 79 80 80 79 76 75 74 74
72 72 72 72 74 73 73 74 75 76 75 76 76 75 76 76 75 75 75 74 73 73 74 73 74 75 75 75 75 75 75 75 75 75 74 74 74 74 74 74 74 74 73 73 73 75 75 74 73 73 73 73 74 77 80 80 79 77 76 74 74 75
72 72 71 71 72 73 72 73 75 76 76 76 76 76 75 75 75 74 74 73 72 73 74 73 76 77 75 74 73 74 75 75 75 75 74 74 74 74 74 74 74 74 72 74 74 77 79 77 75 73 74 75 76 80 79 78 78 77 75 76 75 74
73 72 71 71 71 71 72 72 75 76 77 76 75 75 75 74 75 75 74 73 73 74 74 73 73 72 72 73 73 73 74 74 74 73 73 73 73 76 73 76 74 72 74 76 78 79 79 77 76 76 76 76 76 79 79 78 77 76 75 74 73 74
73 72 72 71 71 72 72 71 72 75 76 75 74 73 74 74 74 73 73 73 74 73 72 73 73 71 72 72 72 73 74 74 74 74 74 74 74 74 73 75 75 75 75 77 78 79 79 77 77 76 76 77 76 79 76 77 77 74 73 72 73 74
73 72 72 71 72 73 71 70 73 72 70 71 72 73 74 74 74 73 73 73 71 71 71 71 72 72 71 72 73 73 74 75 75 75 74 75 74 74 74 75 75 75 76 78 81 80 81 80 78 79 77 78 77 73 70 72 76 75 73 73 73 74
72 72 71 71 72 73 72 73 74 72 71 71 71 71 73 74 74 73 73 72 71 70 70 70 71 72 71 73 73 75 76 76 76 76 76 75 75 74 74 74 75 76 78 80 81 80 80 82 79 79 79 77 70 69 68 69 74 75 74 73 73 74
73 72 72 71 73 74 74 73 73 71 69 72 68 70 73 73 72 72 71 71 70 69 69 71 71 73 73 72 74 75 74 75 76 76 76 75 77 75 74 75 75 77 76 76 77 79 80 79 78 78 77 70 70 70 70 69 70 71 71 72 73 73
73 72 72 72 74 73 72 72 73 71 70 71 69 71 71 70 70 69 69 70 70 70 69 69 71 72 72 70 72 74 74 75 75 77 76 76 76 75 74 73 74 74 76 76 77 78 77 77 79 80 71 69 69 70 69 69 70 69 69 71 71 72
72 72 72 73 73 73 73 72 72 71 71 70 71 71 70 70 69 69 69 70 69 70 70 70 70 70 68 70 71 74 75 76 75 76 75 76 76 75 75 74 72 72 73 76 75 76 76 76 77 81 70 71 70 70 69 69 69 70 69 69 71 71
70 72 73 73 74 73 72 72 71 71 70 70 71 71 70 69 68 69 70 70 69 69 69 71 69 69 68 69 72 74 75 74 74 75 73 75 75 74 75 75 75 75 75 74 73 73 74 75 76 71 71 72 71 70 68 68 69 69 69 69 70 71
70 71 71 72 72 72 72 71 70 69 69 71 72 72 70 70 70 70 70 70 71 71 70 70 70 70 69 72 74 74 74 74 74 74 74 75 74 75 75 73 74 76 75 75 75 75 78 76 74 69 70 70 69 68 68 68 68 68 69 70 70 70
70 69 70 70 70 71 71 69 70 69 70 71 72 72 71 72 71 71 72 72 73 73 70 69 69 70 74 76 74 73 74 74 75 75 74 74 73 74 73 74 73 74 75 74 74 74 74 75 72 70 68 68 67 67 68 68 68 69 70 70 70 70
69 68 69 70 70 72 71 68 70 70 71 72 73 72 72 72 70 72 72 72 73 73 70 68 69 70 70 70 70 71 73 75 75 75 74 74 74 73 74 73 73 74 74 75 74 74 74 72 67 67 67 67 67 68 68 69 69 69 70 70 70 69
69 68 69 70 71 73 71 69 69 69 70 72 71 73 72 71 72 72 72 72 73 71 73 70 71 71 71 69 69 69 71 74 75 75 74 74 74 73 72 72 73 73 73 74 75 73 73 69 67 65 66 67 67 68 68 67 68 68 69 69 69 69
70 71 71 72 73 74 71 69 69 68 71 71 71 71 72 71 72 72 72 71 72 72 70 70 71 73 71 70 68 67 67 69 73 72 72 72 72 73 71 72 71 73 74 71 74 71 69 66 65 66 66 68 68 68 66 65 66 67 69 69 69 67
73 72 72 72 73 72 73 69 68 69 71 70 71 71 73 72 72 72 70 72 73 71 70 70 72 70 70 69 69 68 67 69 72 72 72 72 70 72 72 71 69 71 72 71 68 68 67 68 67 65 66 65 66 66 66 65 66 67 65 68 68 67
72 72 72 72 72 72 71 68 68 69 70 70 69 70 71 71 73 73 72 74 72 72 71 71 72 72 70 70 69 69 70 71 70 70 69 70 70 70 70 70 69 69 70 70 68 67 67 66 66 66 66 65 66 67 65 65 66 68 66 67 68 67
71 72 71 71 72 71 70 66 66 67 67 68 68 70 71 70 71 72 72 73 71 70 71 72 73 72 71 69 68 68 69 70 69 67 67 67 68 68 69 69 68 69 68 67 68 69 68 66 65 65 65 65 67 67 65 64 66 67 67 67 67 67
71 71 70 70 71 71 70 70 67 66 66 67 68 68 69 70 71 70 73 74 71 70 71 71 73 72 70 70 68 68 68 70 70 68 66 67 68 68 70 68 67 67 68 67 67 70 69 68 64 63 65 66 66 67 66 68 67 66 67 66 66 66
69 68 70 70 71 72 72 72 71 70 69 68 67 67 69 71 70 72 72 72 73 72 72 72 72 71 70 69 68 68 68 69 69 68 68 67 68 68 70 69 68 68 69 69 67 70 67 68 63 62 62 62 63 65 65 67 66 65 65 67 67 67
67 68 67 67 70 72 74 72 70 67 67 67 69 69 71 72 72 71 71 72 73 71 73 72 72 71 70 69 69 68 68 68 68 68 68 66 66 67 68 69 69 69 68 71 68 69 68 68 63 64 64 63 60 60 62 64 66 66 65 67 67 66
67 68 67 68 70 73 68 67 69 71 68 68 68 69 71 72 71 71 71 71 71 73 73 72 73 72 72 70 70 70 70 69 67 68 69 68 65 68 67 69 70 70 70 67 68 67 70 68 68 64 59 59 59 60 57 59 61 62 65 66 66 66
66 66 66 67 70 68 66 67 71 72 70 69 70 70 70 69 70 70 71 71 69 73 73 73 72 71 72 71 71 71 71 70 68 68 71 70 70 70 71 73 73 70 70 67 67 67 68 70 69 69 63 59 58 57 58 60 61 60 64 64 65 65
66 67 67 68 69 66 67 67 67 67 66 66 66 67 66 67 68 68 69 72 72 73 74 73 72 71 73 71 71 72 72 71 70 69 70 71 72 71 72 73 74 71 71 70 68 68 66 68 68 68 68 66 65 61 59 62 62 55 63 65 64 66
65 66 67 67 70 68 67 68 67 69 69 68 67 68 70 69 69 70 71 70 70 71 74 73 71 71 72 72 72 73 73 73 72 71 71 71 69 71 73 73 73 71 71 70 69 66 66 66 68 69 70 69 67 65 67 62 58 60 56 60 63 64
65 66 67 67 69 70 69 68 68 68 69 70 69 68 68 68 70 70 68 69 69 69 70 71 68 71 73 73 72 72 71 72 72 74 72 71 71 71 72 72 71 71 70 70 69 66 66 68 65 65 68 67 66 67 67 66 67 63 60 56 58 63
64 65 67 68 69 70 70 69 69 69 68 69 70 70 70 70 67 68 67 67 67 67 67 69 68 68 72 74 73 71 73 73 72 73 73 72 71 73 72 70 69 69 69 68 69 69 68 67 67 65 65 66 67 66 67 67 68 67 62 59 58 59
64 64 67 68 68 70 70 67 67 69 68 67 68 69 70 67 67 67 66 66 66 66 67 66 66 67 69 73 74 73 73 73 72 73 71 70 72 72 71 71 70 70 69 68 69 69 68 67 68 67 68 67 65 65 64 63 65 64 64 64 59 59
65 64 67 67 68 69 69 65 66 68 69 68 69 68 66 65 65 66 67 67 66 65 67 66 66 67 68 71 72 71 71 70 73 73 73 72 70 71 71 70 71 71 71 69 68 68 69 69 68 68 68 67 66 66 63 60 63 65 64 62 61 61
65 65 66 69 69 69 68 67 67 67 68 69 69 68 66 64 65 66 67 66 67 67 68 67 67 67 72 74 73 72 73 74 74 74 74 73 72 72 71 71 70 70 70 70 70 70 69 68 68 68 67 66 66 67 67 66 66 64 64 62 63 62
64 65 67 69 70 70 68 67 68 66 66 69 69 68 67 65 66 67 67 67 67 66 69 70 71 71 72 73 73 72 73 73 73 72 74 75 74 74 72 71 70 71 71 70 69 69 68 68 68 68 67 68 68 68 68 68 67 67 67 67 65 62
65 66 68 69 70 70 69 69 70 70 69 69 68 68 67 66 67 68 69 68 68 69 69 70 71 71 72 73 73 73 73 73 73 73 73 73 73 74 74 74 72 71 70 70 70 68 68 69 68 67 68 67 68 68 67 69 69 68 67 66 64 63
66 67 68 69 70 70 70 70 71 71 69 69 68 68 68 69 68 67 68 69 69 70 70 71 72 71 73 73 73 73 73 72 73 73 72 72 74 72 72 74 73 71 69 69 67 69 69 68 69 68 68 67 68 68 68 70 68 69 69 68 67 65
68 68 69 69 69 70 69 70 70 70 70 69 69 68 68 67 68 68 67 68 70 71 72 72 72 73 73 73 73 72 73 73 73 73 72 72 72 72 72 71 70 71 71 72 68 69 68 68 68 69 69 68 69 68 69 69 70 69 69 68 68 67
69 69 69 70 70 69 69 69 70 70 69 69 68 68 66 67 66 66 66 67 70 72 73 72 72 73 73 73 72 72 72 72 73 72 72 72 73 74 73 72 71 70 70 72 71 70 67 68 67 68 69 68 68 68 69 69 70 70 69 68 69 68

ECMWFFLT2_sfc_temp_087.txt.gz
Temp
72 72 72 72 73 73 75 75 75 75 75 75 75 75 75 75 75 75 75 75 74 72 72 73 73 73 76 73 73 74 75 75 75 75 75 74 75 75 75 74 74 74 74 73 72 73 72 73 73 73 74 74 74 71 73 73 73 72 71 71 70 72
70 71 71 72 73 73 73 74 73 73 73 74 74 74 73 73 75 72 75 74 72 73 71 71 71 75 72 73 74 74 75 75 75 75 74 74 74 74 74 74 74 74 73 73 72 68 69 72 72 73 74 74 71 73 73 73 72 71 71 70 70 73
70 71 71 71 72 72 72 72 72 73 73 74 74 73 72 73 72 71 72 71 71 71 70 71 71 73 72 74 73 74 75 75 75 75 74 74 74 74 74 74 74 74 73 72 70 68 68 67 67 73 72 70 70 73 73 73 72 71 70 70 70 75
70 71 70 70 71 71 71 71 71 72 72 72 72 72 71 72 71 71 71 70 69 70 70 70 76 77 75 72 72 74 75 75 75 75 74 73 74 74 74 74 74 73 71 71 68 69 71 69 68 67 68 68 71 73 73 73 72 71 71 73 73 74
70 70 70 70 71 70 70 70 71 71 72 72 71 71 71 71 71 70 70 69 69 71 70 70 70 70 69 70 69 70 71 70 70 69 72 67 67 72 69 69 68 69 66 68 69 70 72 70 69 70 69 71 72 73 73 73 73 72 70 70 71 74
69 69 70 70 70 71 71 69 70 71 71 71 71 70 70 70 70 70 69 69 70 69 69 69 69 69 69 69 69 69 69 69 68 68 69 68 67 66 66 68 68 68 67 68 69 71 73 71 70 69 70 70 70 71 72 72 72 71 70 69 72 74
69 69 69 69 69 70 69 69 70 70 69 69 70 70 70 70 70 70 70 70 69 68 68 68 68 68 68 69 68 68 68 69 69 68 69 67 67 67 68 67 67 68 68 69 72 75 75 74 73 71 69 71 71 71 69 70 71 70 70 70 72 74
69 69 68 69 70 69 68 69 70 71 70 70 69 69 70 70 70 69 70 70 69 68 68 68 68 68 68 68 69 69 69 69 69 69 69 69 68 67 67 68 67 69 71 73 76 76 77 75 72 71 70 69 70 69 68 68 69 70 70 70 72 74
69 69 69 70 70 69 69 69 69 68 68 72 68 69 69 70 69 69 69 69 69 68 68 68 68 68 68 68 68 69 69 68 69 69 69 69 69 68 67 68 68 70 71 73 72 74 75 72 70 70 69 69 70 69 68 68 68 68 68 69 70 72
70 70 69 70 69 69 68 68 68 68 68 69 67 69 69 68 68 69 68 68 68 68 68 67 68 68 68 67 68 68 69 68 69 70 69 69 69 69 68 69 70 71 72 72 73 73 73 71 71 70 70 70 69 69 68 68 68 68 68 68 69 71
70 70 70 69 68 69 69 68 68 68 68 67 68 69 68 68 68 68 68 68 68 68 68 68 68 67 67 67 68 68 69 70 69 68 69 70 71 71 71 70 71 71 71 71 72 73 72 70 69 70 69 69 68 68 68 68 68 68 68 67 68 69
70 70 69 68 69 69 69 68 68 68 67 68 68 68 68 67 68 67 68 67 67 67 68 67 67 67 67 66 67 68 69 70 69 70 70 71 70 70 71 71 71 72 72 71 72 72 71 69 68 68 69 70 69 68 67 68 68 68 68 67 67 68
69 69 68 67 68 69 69 69 68 68 68 69 68 68 67 67 67 68 68 67 67 68 68 67 66 67 67 66 67 68 69 70 70 70 70 69 69 70 71 70 72 71 72 72 72 70 69 67 67 66 67 67 66 67 67 68 68 68 68 68 67 67
68 68 68 68 69 68 68 67 68 68 69 69 69 68 67 67 68 68 67 67 68 68 68 68 67 67 67 67 67 68 68 69 69 69 69 69 69 68 69 70 70 70 73 70 69 68 67 66 67 66 66 66 66 66 67 67 67 68 68 68 67 67
68 68 68 67 69 68 67 67 68 68 68 69 69 68 68 68 68 68 68 68 68 68 68 68 68 67 65 66 66 66 65 65 66 68 69 68 68 67 67 67 67 69 69 67 68 67 67 66 66 66 65 66 66 66 66 66 67 67 67 67 67 67
67 68 67 67 67 67 67 67 67 69 68 69 68 69 68 68 68 68 68 68 68 68 67 68 67 67 65 65 66 66 66 66 66 66 68 69 68 67 67 67 66 68 66 66 67 66 66 64 65 65 65 66 66 66 65 66 66 66 67 67 66 66
67 67 68 67 67 66 66 66 67 67 68 68 68 68 68 68 68 68 68 68 68 68 67 67 67 67 65 66 66 65 65 66 67 66 67 67 66 67 68 69 68 68 67 64 65 65 65 63 64 65 65 65 64 64 64 64 65 65 67 66 64 64
67 67 66 66 66 65 66 66 66 66 67 67 68 68 69 69 68 67 67 67 68 68 67 67 68 67 66 67 66 66 65 66 67 67 67 67 66 67 67 68 67 66 65 65 64 64 63 64 65 64 64 64 64 63 63 64 65 65 64 65 64 64
66 66 66 66 66 65 66 66 66 66 66 66 67 67 67 67 67 66 66 67 68 68 68 68 68 67 66 66 66 65 66 66 67 67 66 67 67 67 67 66 66 64 64 64 64 64 64 63 64 64 64 64 64 64 63 63 64 64 64 64 65 65
65 65 65 65 65 64 65 64 64 65 65 65 66 66 66 66 67 66 67 68 68 67 68 68 68 68 67 66 66 66 67 67 65 65 65 65 64 65 66 66 66 64 64 65 65 64 64 64 63 62 62 63 63 63 63 63 64 64 63 64 64 64
64 65 64 64 64 63 63 63 63 64 64 65 65 66 66 65 66 66 67 68 68 67 68 69 69 68 66 67 66 66 66 66 66 65 64 64 65 66 66 65 64 65 65 64 64 65 64 64 62 61 63 62 62 63 65 65 64 64 64 63 63 64
64 64 64 65 65 64 64 64 63 63 64 64 65 65 65 66 66 67 67 68 68 68 68 68 68 67 67 66 65 65 65 65 65 65 65 65 64 65 66 66 66 64 64 64 64 65 64 64 61 60 59 58 60 62 63 63 63 63 64 64 63 63
64 64 64 65 66 65 64 65 64 64 65 64 66 66 67 67 68 68 68 68 68 68 68 68 68 67 67 66 65 65 65 65 65 66 64 63 64 64 64 64 65 64 63 64 63 65 64 63 60 61 62 60 57 58 60 61 62 63 64 64 64 62
64 64 64 66 68 67 66 65 65 65 66 65 65 66 66 68 68 68 67 68 68 68 68 68 68 68 67 66 65 65 65 64 64 65 64 63 62 64 64 64 64 65 65 61 61 63 65 65 63 62 57 56 57 59 55 57 59 62 63 63 63 62
64 64 65 67 67 66 66 65 65 65 65 65 66 66 65 65 66 67 67 66 67 68 69 68 68 68 67 66 65 66 65 65 64 64 65 63 62 63 64 65 66 65 65 62 62 62 63 65 65 63 60 56 55 55 55 57 59 59 63 62 62 63
64 65 65 66 66 65 65 65 64 63 62 62 62 63 63 63 64 65 65 66 68 68 69 68 67 68 68 67 66 66 66 65 64 65 65 64 64 64 63 63 65 65 64 64 64 63 62 64 65 64 63 60 58 54 56 58 59 55 60 62 62 63
64 64 65 66 66 66 66 66 65 64 64 63 63 64 65 65 65 66 66 66 66 67 68 67 67 67 66 67 67 67 67 66 66 65 67 65 63 64 65 65 65 65 65 66 65 63 62 63 63 64 65 63 62 61 64 59 55 58 56 59 61 62
64 65 65 66 65 67 67 66 65 65 65 64 64 64 65 65 66 66 65 66 66 65 67 66 66 66 66 68 67 67 67 67 66 67 66 66 64 65 66 66 65 65 65 66 66 63 62 63 62 62 63 62 62 64 64 61 63 60 59 56 57 61
64 64 64 64 65 65 67 67 67 66 65 65 65 65 65 65 65 65 64 64 65 64 64 65 66 66 65 66 65 65 66 66 66 67 68 67 66 67 65 65 64 63 65 65 65 64 63 62 62 62 62 60 62 62 62 63 62 62 60 57 56 58
62 63 64 64 64 66 65 65 66 66 65 64 65 65 65 64 64 63 63 63 63 62 63 63 64 65 64 66 65 65 66 65 65 67 67 67 67 67 66 65 65 65 65 65 64 65 64 63 63 63 63 62 62 59 60 61 61 61 60 61 57 57
62 63 65 65 65 66 65 64 63 65 65 64 65 65 63 63 62 62 62 62 62 62 63 62 62 63 64 65 65 65 65 65 66 67 67 67 67 67 66 65 66 66 65 65 65 64 64 64 64 63 63 62 61 62 59 58 60 61 60 57 58 57
63 64 65 66 66 66 65 64 63 64 65 65 65 64 63 62 62 62 62 61 61 62 62 62 63 63 63 64 64 64 64 64 64 67 68 67 67 68 66 66 65 65 65 64 64 65 64 63 64 63 62 62 62 62 61 61 62 62 61 59 60 58
63 64 65 67 66 65 64 64 64 64 64 66 65 64 63 63 63 63 63 62 62 62 62 62 62 62 63 64 64 64 64 64 66 67 67 67 67 68 66 66 65 66 65 64 64 64 63 63 63 62 62 63 63 64 63 62 63 62 62 62 61 58
63 65 65 65 66 64 64 63 63 63 63 63 64 64 63 63 63 63 63 63 63 63 63 63 63 63 65 65 66 66 67 67 66 67 67 67 66 67 66 67 66 66 65 64 64 63 63 62 63 63 64 64 63 63 62 63 64 63 63 62 60 59
62 64 65 64 65 64 62 62 63 62 63 63 63 63 63 64 64 63 63 64 64 64 64 65 65 66 68 68 67 67 67 66 66 66 67 67 68 66 65 67 66 66 65 65 65 64 62 63 64 63 62 62 63 62 62 63 63 64 66 64 63 61
63 63 63 63 64 63 62 64 63 63 63 63 64 64 63 64 64 64 64 64 64 64 65 66 68 68 67 67 67 67 67 67 66 66 66 66 67 66 66 65 64 65 65 67 64 64 62 63 63 62 61 62 63 63 63 64 65 64 65 64 64 62
64 63 63 64 63 63 62 63 63 63 64 63 63 64 64 64 63 63 64 65 65 65 66 68 67 67 66 67 67 67 67 67 66 66 65 65 65 64 66 65 65 64 64 64 64 64 63 64 63 62 62 62 62 63 63 63 65 65 65 65 64 63

ECMWFFLT2_sfc_temp_093.txt.gz
Temp
73 73 72 71 71 72 74 75 75 75 75 75 75 75 75 76 75 75 75 75 73 72 72 73 73 72 75 72 73 74 74 74 74 74 74 74 74 74 73 73 72 73 72 72 71 72 73 74 74 73 73 73 72 67 66 66 65 66 65 66 66 67
72 72 72 72 72 72 72 74 71 72 73 74 74 75 74 73 75 72 75 73 71 72 70 70 71 74 71 73 73 74 74 74 74 74 73 74 73 73 73 73 72 72 72 71 69 66 70 73 73 73 73 72 67 65 66 66 65 65 66 66 67 71
72 72 72 72 71 71 70 70 70 71 72 74 73 73 71 72 70 71 70 69 70 70 70 70 71 72 72 74 73 74 74 74 74 74 73 73 73 73 73 72 73 72 71 69 66 65 66 67 69 73 72 67 65 65 65 65 65 65 65 67 65 74
72 72 72 71 71 70 70 70 70 70 70 71 71 70 69 70 70 69 69 69 69 70 70 69 74 74 74 72 72 73 74 74 74 73 74 72 73 73 73 73 72 70 68 67 65 65 66 65 65 65 65 64 64 65 65 65 64 65 65 68 68 74
72 72 72 71 71 70 71 71 71 71 71 71 69 69 69 68 69 69 69 69 69 70 69 70 70 70 69 69 68 69 70 69 68 66 70 64 64 66 66 64 64 64 63 66 65 66 67 66 65 66 65 65 65 65 65 65 64 64 65 66 69 74
71 71 71 71 71 71 72 70 70 71 70 70 70 68 68 68 68 68 68 68 69 68 68 68 68 68 69 68 68 67 67 67 66 65 66 63 63 62 62 62 64 64 63 64 64 65 67 66 65 65 65 65 66 65 65 64 64 64 65 65 69 74
70 70 71 71 71 71 70 70 70 70 70 69 69 69 68 68 67 67 67 68 68 67 67 68 68 69 68 68 67 66 66 66 66 65 64 63 63 62 62 62 61 61 61 63 65 66 66 66 65 66 65 67 67 66 64 64 64 64 65 66 70 73
70 70 70 70 70 70 70 70 70 71 70 70 69 68 69 68 67 66 67 67 67 66 67 67 68 68 68 67 66 66 66 65 66 65 64 63 62 62 62 61 61 61 64 64 66 66 67 67 65 66 66 65 65 64 64 64 65 66 66 66 67 72
70 70 69 70 70 69 69 69 70 69 68 71 68 68 69 67 66 67 67 67 67 66 66 67 67 68 67 67 66 66 65 65 65 64 63 63 63 62 62 61 62 63 61 63 63 64 66 66 65 65 65 65 65 64 64 65 66 65 65 65 66 70
70 69 69 70 69 68 68 68 68 69 68 70 67 67 68 67 66 66 66 66 67 67 66 66 67 67 66 66 66 66 66 65 65 63 63 63 63 63 62 61 62 63 64 63 64 66 65 65 66 65 64 65 65 65 64 64 65 64 64 65 66 69
68 69 69 68 67 66 66 67 67 68 68 67 67 67 67 66 66 67 67 67 67 67 67 66 67 67 66 66 66 66 65 65 64 63 63 64 63 63 62 62 64 63 62 63 63 65 66 65 65 65 66 66 65 65 65 65 65 65 65 64 64 65
68 68 68 67 67 65 65 66 67 67 67 66 67 67 67 67 67 66 66 67 67 66 67 66 67 67 66 66 66 66 65 65 64 64 64 64 64 63 63 63 64 64 63 63 63 64 64 64 64 65 65 65 65 65 64 65 65 65 64 64 64 64
68 67 67 67 66 66 66 66 65 65 66 67 67 66 66 66 66 66 67 67 67 67 68 67 66 67 67 66 66 66 65 65 66 65 65 65 65 64 64 64 64 65 63 64 64 63 65 64 64 64 65 65 65 65 65 65 64 64 64 64 63 63
67 66 67 66 66 66 66 66 66 66 66 66 66 66 66 66 66 66 66 66 66 67 67 67 67 66 66 66 66 66 65 65 65 65 65 65 65 64 64 65 64 64 66 64 63 63 63 64 64 64 64 65 64 64 65 65 64 64 63 64 63 64
67 66 66 66 66 66 66 65 65 66 66 66 66 66 66 66 66 66 66 65 66 66 66 66 67 66 65 65 65 65 64 64 65 65 65 65 65 64 65 64 64 63 63 62 63 64 64 64 64 65 65 66 66 65 65 64 64 64 63 63 63 63
66 65 65 65 65 65 65 65 65 67 66 66 65 65 65 66 66 66 66 65 66 66 66 66 66 66 65 65 65 64 64 64 65 65 65 65 65 65 64 64 64 65 63 62 63 62 64 64 64 65 65 66 66 65 65 64 64 64 63 63 63 62
65 64 64 64 64 65 65 65 65 66 66 66 65 65 66 66 66 65 66 65 66 66 66 66 66 66 65 65 64 64 64 64 65 65 65 64 64 64 65 65 64 64 65 61 62 62 63 64 64 65 65 65 65 65 65 64 64 63 63 63 62 62
65 64 64 64 64 64 65 65 65 65 66 65 66 66 66 66 65 65 66 65 66 66 66 65 65 65 65 65 65 64 64 64 65 64 64 64 63 64 64 64 62 61 62 62 61 63 63 64 64 64 64 64 64 65 64 64 63 64 62 62 62 62
64 63 64 64 64 64 65 65 65 64 65 65 65 66 66 66 66 66 66 66 66 66 66 65 66 66 65 65 64 64 64 64 65 64 64 64 63 64 63 62 62 61 62 61 62 63 63 63 63 63 63 63 64 64 64 64 63 62 62 63 64 64
64 64 63 64 64 63 64 64 64 64 64 65 65 65 66 66 66 66 66 66 66 65 66 66 65 65 65 65 64 64 64 64 64 64 64 63 63 62 62 62 61 62 61 62 63 63 63 63 62 62 62 63 63 64 64 63 63 62 62 63 63 63
64 64 63 63 63 63 63 63 64 63 63 64 65 65 66 66 66 66 67 66 66 65 66 66 66 65 65 66 64 64 64 64 64 64 63 63 63 62 62 62 61 61 61 61 61 63 63 63 61 60 62 62 62 63 64 64 63 62 62 62 62 62
64 64 63 63 63 64 64 64 64 64 64 64 65 65 65 66 66 66 66 65 65 65 65 65 65 64 65 64 64 64 64 63 63 63 63 63 62 63 62 61 62 61 60 61 61 63 62 62 58 59 58 59 60 61 63 63 63 62 63 63 63 62
64 64 64 64 63 64 64 64 63 63 64 64 66 66 66 66 67 65 65 65 65 65 65 65 65 65 65 65 64 64 64 63 63 64 63 62 62 62 61 62 62 61 60 59 60 62 61 58 58 60 60 59 57 57 60 61 62 63 63 62 63 62
63 63 63 64 65 64 64 64 64 64 65 65 64 65 65 66 65 65 64 65 65 66 66 65 65 65 65 65 64 64 64 63 63 64 63 62 61 62 61 61 62 62 62 60 60 61 61 59 61 61 55 53 57 58 55 57 58 60 62 63 63 62
63 64 64 64 64 62 64 63 64 64 65 65 65 64 64 63 64 64 64 65 64 65 66 65 65 65 65 64 64 64 63 63 63 62 63 62 62 62 62 62 62 62 61 60 59 58 60 59 61 60 58 56 54 55 55 57 59 59 61 61 62 63
64 64 64 64 63 62 62 62 62 62 62 62 62 63 62 62 63 63 63 65 65 66 66 66 65 65 65 65 64 64 64 63 62 62 62 62 62 61 61 61 62 62 61 60 61 60 59 58 61 59 56 57 59 56 56 58 59 54 60 61 61 63
63 62 62 64 64 63 61 62 63 63 64 63 62 63 65 65 64 64 64 64 65 66 66 65 65 65 64 65 64 64 63 63 63 62 63 62 61 61 62 62 62 62 61 61 61 60 59 59 59 60 59 59 59 56 60 59 55 57 55 58 60 61
63 62 61 62 63 63 63 63 63 63 64 63 63 63 64 64 63 63 63 63 64 65 65 65 64 64 64 65 64 64 63 63 63 63 63 62 62 62 62 61 62 63 61 62 61 61 59 59 59 59 59 57 57 59 58 55 59 57 57 55 56 60
62 63 62 63 63 63 64 63 63 63 63 63 64 64 64 64 63 64 63 63 64 64 63 64 64 64 64 65 64 63 63 62 63 63 64 62 62 62 62 62 61 61 61 61 61 61 60 59 59 58 58 55 58 57 56 58 58 55 57 56 56 57
62 63 63 63 64 64 63 63 62 62 62 61 63 63 63 63 63 63 63 62 63 63 63 63 63 64 64 64 64 64 63 63 63 63 63 62 62 62 62 62 62 62 61 61 60 61 61 60 60 59 59 57 55 55 56 56 55 56 57 56 55 56
63 63 63 63 64 63 63 62 62 62 62 62 62 63 63 63 63 63 63 62 62 62 62 62 62 61 63 63 63 64 63 63 63 64 63 62 62 62 62 61 62 62 61 61 61 61 60 59 60 60 58 59 59 60 57 54 56 57 55 54 56 57
63 64 64 64 63 63 63 63 61 62 62 62 62 63 63 63 63 63 63 62 62 62 62 61 60 60 61 62 63 62 63 63 63 63 63 63 63 63 62 62 61 61 61 61 60 61 60 59 59 59 58 59 59 59 57 58 59 58 57 56 58 57
62 64 64 64 63 63 62 61 61 61 61 62 62 62 63 63 63 63 63 62 62 61 61 61 60 60 60 61 62 62 61 62 62 63 64 63 63 63 62 61 62 61 61 61 61 61 60 60 60 60 59 58 59 59 58 58 59 57 57 58 59 57
61 64 64 63 63 63 62 61 61 60 61 62 62 62 62 63 63 63 63 63 63 62 61 62 61 60 61 62 62 63 63 63 63 63 63 63 63 63 62 62 62 61 61 61 61 60 61 60 60 60 60 59 59 58 57 59 59 59 58 58 56 57
61 62 63 63 62 63 61 61 61 61 61 61 62 62 62 62 62 62 62 63 63 63 62 61 61 61 61 62 62 62 62 62 62 62 62 63 63 63 63 63 62 62 61 61 61 61 60 60 61 59 58 59 59 57 58 59 60 59 60 60 59 58
61 61 62 62 62 62 61 61 61 61 60 61 61 61 61 61 62 62 62 62 63 63 62 61 61 61 61 62 61 61 62 61 61 61 61 62 62 62 62 62 61 61 61 62 61 60 60 60 60 59 59 57 59 58 58 59 60 60 60 60 60 59
61 61 61 62 61 62 61 60 60 61 61 61 61 61 61 61 61 61 61 62 62 63 62 62 62 61 61 61 61 61 61 61 61 61 61 61 62 62 62 62 62 61 61 60 61 61 59 60 59 59 58 58 59 58 58 59 60 60 60 60 60 60

ECMWFFLT2_sfc_temp_096.txt.gz
Temp
72 72 72 71 71 72 74 75 75 75 75 75 75 75 75 75 75 75 75 75 73 72 72 72 73 73 74 72 73 74 74 74 74 74 73 74 74 73 73 73 73 72 73 73 73 73 73 73 73 73 73 72 71 67 66 66 67 68 68 69 69 72
72 72 72 71 72 72 73 74 72 73 73 74 74 75 74 73 74 72 75 73 71 72 70 70 71 74 72 73 73 74 74 74 74 73 73 73 73 73 73 73 72 72 72 72 73 71 72 73 73 73 72 71 67 66 66 66 67 68 68 69 70 73
72 72 72 71 72 72 72 71 70 71 73 73 73 73 71 72 70 71 70 70 71 70 70 70 71 72 72 74 73 74 74 74 74 74 73 73 73 73 72 72 72 71 71 71 69 68 69 69 71 72 70 67 66 66 66 66 67 67 67 69 69 74
72 72 71 71 71 71 70 70 70 70 70 70 70 70 70 70 69 69 69 69 69 70 70 70 74 74 74 72 72 73 74 74 74 74 73 71 72 73 73 72 70 69 68 68 68 68 68 67 66 65 65 66 66 66 66 66 67 67 67 70 69 74
72 72 71 71 71 70 71 71 71 71 70 70 69 69 69 68 68 68 69 69 69 70 69 69 70 70 70 70 69 70 71 69 68 67 68 65 65 66 66 65 65 66 66 67 67 67 67 66 66 66 66 66 66 66 67 67 67 67 68 69 71 73
72 71 71 71 71 71 71 70 70 71 71 70 70 68 68 68 68 68 68 69 69 69 69 69 69 69 70 69 69 68 67 67 65 65 66 64 64 64 63 64 65 65 65 66 67 67 67 67 66 65 66 66 66 66 66 67 67 67 68 69 72 74
71 71 71 71 71 71 71 71 71 70 70 70 69 68 67 67 67 67 67 68 67 67 68 69 69 69 69 69 68 67 66 66 65 65 65 64 63 63 62 63 64 64 65 67 67 67 66 66 66 67 66 67 67 67 65 66 67 67 68 69 72 73
71 71 70 71 71 71 70 70 71 71 70 70 69 68 68 66 66 66 66 67 67 67 68 68 69 69 69 69 68 67 66 66 65 65 64 64 63 62 62 62 64 64 66 67 68 67 67 67 66 67 67 66 66 66 65 65 66 67 68 69 71 73
70 71 70 70 70 70 70 70 70 69 69 71 68 67 67 66 65 66 66 67 67 67 68 69 68 69 68 68 68 67 66 65 65 65 64 63 63 63 62 63 64 64 64 65 66 66 67 67 66 66 66 66 66 66 66 66 67 67 67 68 68 72
70 70 70 70 69 69 69 69 69 69 69 69 67 67 66 64 64 65 65 66 67 67 67 68 68 68 68 67 67 66 66 65 65 65 64 64 63 63 63 63 63 64 65 65 66 67 67 66 66 66 66 66 66 66 65 66 66 66 66 67 68 71
69 69 70 69 68 68 68 69 69 69 69 68 67 66 66 65 65 65 66 66 67 67 67 67 68 68 68 67 67 67 66 65 65 64 64 64 63 64 63 64 64 64 64 64 65 67 67 66 66 67 67 67 65 66 66 66 66 66 66 66 67 69
69 69 69 68 68 67 68 68 68 68 68 68 67 65 65 65 66 65 66 66 67 67 67 67 68 68 67 67 67 66 65 65 65 64 64 64 64 64 63 63 64 64 64 65 65 65 66 66 65 66 67 67 66 66 66 66 66 66 65 65 66 67
69 69 68 67 67 67 66 67 67 67 67 68 67 66 65 65 65 65 66 66 67 67 67 67 68 68 68 67 66 66 65 66 66 65 65 65 65 64 65 65 64 64 64 65 65 64 65 65 65 65 66 65 65 65 66 66 65 65 65 65 66 66
68 68 68 67 67 66 66 66 66 65 66 67 67 66 65 65 66 66 66 66 67 67 67 67 67 67 68 66 66 66 66 65 66 65 65 65 64 64 64 64 64 65 65 64 64 64 65 64 65 66 65 65 65 65 65 65 65 65 65 65 65 66
68 67 67 66 66 66 65 65 65 64 65 66 67 66 66 65 65 66 66 66 67 67 67 66 67 67 66 65 65 65 65 65 65 65 65 65 65 64 64 64 64 63 63 63 64 64 65 65 65 65 65 66 66 65 65 65 65 65 65 65 65 65
67 67 66 66 66 65 65 65 65 66 65 66 66 66 66 66 66 66 66 66 66 67 66 66 66 66 65 65 65 65 65 64 65 65 65 65 65 64 64 64 64 65 63 63 64 64 65 65 65 65 66 66 66 66 65 65 65 65 65 65 65 65
66 66 66 66 65 65 64 65 64 65 64 65 65 65 66 66 66 66 66 65 65 66 66 65 65 65 65 65 65 65 64 64 65 65 65 65 65 65 65 64 63 65 65 63 64 64 64 65 65 65 65 65 66 66 65 65 64 64 65 64 64 64
66 66 66 65 65 64 64 64 64 64 66 65 65 65 66 66 66 66 66 65 65 65 65 65 65 65 65 65 65 65 64 64 65 65 64 64 64 64 64 65 62 62 64 64 63 63 64 64 65 64 65 65 65 65 65 65 64 64 64 64 64 65
66 65 65 64 64 63 64 64 64 64 64 65 66 66 66 66 66 66 65 66 65 65 66 65 65 65 64 65 64 64 64 64 65 65 64 64 63 64 64 64 62 62 63 64 64 64 64 64 64 64 64 64 65 64 64 64 64 64 63 63 64 64
65 65 64 64 63 63 64 64 63 63 64 65 65 65 66 66 66 66 66 66 66 65 66 66 65 65 65 65 64 64 64 64 65 64 64 63 63 63 63 62 62 62 63 64 65 65 65 64 63 63 63 63 64 64 64 64 64 63 64 64 65 64
64 64 64 63 63 63 63 63 64 63 63 64 65 65 65 66 66 66 66 66 65 65 66 65 65 65 64 65 64 64 64 64 64 65 64 64 63 63 63 63 62 63 63 62 62 64 65 65 63 61 62 62 62 63 64 64 63 63 63 63 63 63
64 63 63 63 63 63 63 63 64 64 64 65 65 64 65 66 66 66 66 66 66 65 65 65 65 65 65 64 64 64 64 64 64 64 64 63 63 63 63 62 63 62 64 62 61 64 64 65 61 60 59 59 60 62 63 63 63 63 63 62 62 62
64 64 63 63 63 63 63 64 64 63 65 64 66 66 66 66 65 65 65 66 66 66 65 65 65 65 65 64 64 64 64 64 64 65 63 62 63 62 62 62 63 62 61 63 62 64 63 62 60 62 62 60 57 57 60 61 63 63 63 63 63 63
64 64 63 64 65 64 64 64 65 65 65 65 64 66 66 65 64 64 64 65 65 65 65 65 65 65 65 65 65 64 64 64 64 65 64 62 62 62 62 62 63 63 63 60 61 62 62 61 64 62 57 57 58 59 55 57 58 61 63 63 63 63
63 64 64 65 65 64 64 64 64 64 65 64 65 65 64 63 63 64 64 64 64 65 65 65 65 65 65 64 64 64 64 64 64 63 64 63 62 62 62 63 63 63 63 61 60 61 61 61 64 63 61 57 55 55 57 58 59 59 62 62 63 63
64 64 64 64 64 64 64 63 62 62 62 62 62 63 63 62 61 62 63 64 65 65 65 65 65 65 65 65 64 64 64 63 63 63 63 64 63 62 62 62 63 63 62 63 62 61 60 62 62 60 59 61 62 58 57 59 60 54 60 62 62 63
64 63 64 64 65 64 63 64 63 63 63 62 62 63 65 64 62 63 63 63 64 65 65 65 65 65 65 65 64 64 64 64 64 63 64 63 62 62 62 63 63 63 63 63 62 60 60 60 61 60 60 60 60 58 62 60 56 58 55 59 61 61
63 63 62 63 64 64 63 63 63 62 62 62 63 63 64 64 64 64 63 63 64 64 65 65 65 65 65 65 64 64 64 63 63 63 64 63 63 62 62 63 64 63 62 63 63 62 61 61 60 60 60 59 59 60 61 58 63 60 58 55 57 60
63 63 62 63 63 63 64 63 63 62 61 62 63 63 64 64 63 63 63 63 64 64 64 65 65 64 64 64 65 64 63 63 63 63 64 63 63 63 62 62 62 62 62 62 63 63 62 61 61 59 58 57 59 60 60 60 61 59 59 56 56 57
62 61 62 63 63 64 64 64 62 62 61 61 62 63 64 63 63 63 62 62 63 64 63 63 64 64 64 64 64 64 63 63 63 63 64 63 63 62 62 62 63 63 62 62 62 62 63 62 62 60 61 59 59 58 59 59 59 59 60 60 57 56
62 62 63 62 63 63 63 63 63 62 62 61 62 63 63 62 62 62 62 62 62 63 63 63 63 63 64 64 64 64 63 63 63 64 64 63 63 63 63 63 63 63 62 62 61 61 62 61 61 61 60 61 61 62 60 58 59 59 58 57 57 57
62 63 63 63 62 62 62 63 63 62 61 62 63 63 63 62 62 62 62 62 62 62 62 62 62 62 63 63 64 63 63 63 63 63 63 63 63 64 63 63 62 62 62 62 62 62 61 61 61 61 60 60 61 62 60 61 61 61 59 59 60 58
62 63 63 63 63 62 61 61 62 62 62 62 62 63 63 63 63 63 63 62 62 61 62 61 61 62 62 63 64 63 62 62 62 63 63 63 63 63 62 62 62 62 62 62 62 62 62 61 61 61 61 60 61 61 61 60 61 60 60 61 61 58
62 63 64 63 63 62 61 61 61 61 62 62 62 62 63 63 63 64 64 63 63 62 62 62 62 63 63 63 63 64 63 63 63 63 64 63 63 63 63 63 63 62 62 62 62 62 62 62 62 62 62 60 60 61 60 61 61 61 60 60 59 59
62 63 63 63 63 62 61 61 61 61 61 62 62 61 62 63 63 63 64 64 64 64 63 64 63 63 62 62 63 63 63 63 63 63 63 63 63 63 62 63 63 62 62 62 62 62 61 61 61 61 61 61 60 60 60 61 62 62 63 62 61 61
62 61 62 63 62 62 62 61 61 60 60 61 62 62 61 62 63 64 64 64 63 63 64 64 64 63 62 62 62 62 63 62 62 62 63 63 62 62 62 62 62 62 62 62 61 61 61 61 62 61 61 60 61 60 60 61 62 62 63 63 63 62
61 60 60 61 62 62 62 61 61 60 60 61 62 62 61 61 62 63 63 63 63 63 63 63 63 62 61 62 62 62 62 62 61 61 62 62 62 62 62 62 62 61 61 62 62 62 60 61 61 60 60 60 61 60 60 61 62 62 62 62 63 63